Observation data for Wellington on 04/08/2021      Previous  Date  Next       Current Mesonet Observations  Soil Data  Daily Summary Page  Observations in Plain Language
KWE3 080500Z 36006KT 10/02 A2989 RMK A01 T00990021  RH  058%=      5-min Rain = 0
KWE3 080501Z 00006KT 10/02 A2989 RMK A01 T00980020  RH  058%=      5-min Rain = 0
KWE3 080502Z 00007KT 10/02 A2989 RMK A01 T00970020  RH  059%=      5-min Rain = 0
KWE3 080503Z 00007KT 10/02 A2989 RMK A01 T00970020  RH  058%=      5-min Rain = 0
KWE3 080504Z 00007KT 10/02 A2989 RMK A01 T00970020  RH  058%=      5-min Rain = 0
KWE3 080505Z 00007KT 10/02 A2989 RMK A01 T00980020  RH  058%=      5-min Rain = 0
KWE3 080506Z 36007KT 10/02 A2989 RMK A01 T00990020  RH  058%=      5-min Rain = 0
KWE3 080507Z 36007KT 10/02 A2989 RMK A01 T00990020  RH  058%=      5-min Rain = 0
KWE3 080508Z 00007KT 10/02 A2989 RMK A01 T00990020  RH  058%=      5-min Rain = 0
KWE3 080509Z 00007KT 10/02 A2989 RMK A01 T00980020  RH  058%=      5-min Rain = 0
KWE3 080510Z 00007KT 10/02 A2989 RMK A01 T00980020  RH  058%=      5-min Rain = 0
KWE3 080511Z 00007KT 10/02 A2989 RMK A01 T00980020  RH  058%=      5-min Rain = 0
KWE3 080512Z 00006KT 10/02 A2989 RMK A01 T00970020  RH  059%=      5-min Rain = 0
KWE3 080513Z 00006KT 10/02 A2989 RMK A01 T00970020  RH  059%=      5-min Rain = 0
KWE3 080514Z 00005KT 10/02 A2989 RMK A01 T00970020  RH  059%=      5-min Rain = 0
KWE3 080515Z 00005KT 10/02 A2989 RMK A01 T00970020  RH  059%=      5-min Rain = 0
KWE3 080516Z 36004KT 10/02 A2989 RMK A01 T00970019  RH  059%=      5-min Rain = 0
KWE3 080517Z 35004KT 10/02 A2989 RMK A01 T00970019  RH  058%=      5-min Rain = 0
KWE3 080518Z 35004KT 10/02 A2989 RMK A01 T00970019  RH  058%=      5-min Rain = 0
KWE3 080519Z 35004KT 10/02 A2989 RMK A01 T00980019  RH  058%=      5-min Rain = 0
KWE3 080520Z 35004KT 10/02 A2989 RMK A01 T00980019  RH  058%=      5-min Rain = 0
KWE3 080521Z 35004KT 10/02 A2989 RMK A01 T00980020  RH  058%=      5-min Rain = 0
KWE3 080522Z 35003KT 10/02 A2989 RMK A01 T00980020  RH  058%=      5-min Rain = 0
KWE3 080523Z 35003KT 10/02 A2989 RMK A01 T00970020  RH  058%=      5-min Rain = 0
KWE3 080524Z 35003KT 10/02 A2989 RMK A01 T00980019  RH  058%=      5-min Rain = 0
KWE3 080525Z 34003KT 10/02 A2989 RMK A01 T00990019  RH  057%=      5-min Rain = 0
KWE3 080526Z 33002KT 10/02 A2989 RMK A01 T01010019  RH  057%=      5-min Rain = 0
KWE3 080527Z 32002KT 10/02 A2989 RMK A01 T01030018  RH  056%=      5-min Rain = 0
KWE3 080528Z 32002KT 10/02 A2989 RMK A01 T01030018  RH  055%=      5-min Rain = 0
KWE3 080529Z 32002KT 10/02 A2989 RMK A01 T01040018  RH  055%=      5-min Rain = 0
KWE3 080530Z 33002KT 10/02 A2989 RMK A01 T01040019  RH  056%=      5-min Rain = 0
KWE3 080531Z 34003KT 10/02 A2989 RMK A01 T01040019  RH  056%=      5-min Rain = 0
KWE3 080532Z 34003KT 10/02 A2989 RMK A01 T01040019  RH  055%=      5-min Rain = 0
KWE3 080533Z 35003KT 11/02 A2989 RMK A01 T01050019  RH  055%=      5-min Rain = 0
KWE3 080534Z 35004KT 11/02 A2989 RMK A01 T01060018  RH  055%=      5-min Rain = 0
KWE3 080535Z 36004KT 11/02 A2989 RMK A01 T01070018  RH  054%=      5-min Rain = 0
KWE3 080536Z 00004KT 11/02 A2989 RMK A01 T01080019  RH  054%=      5-min Rain = 0
KWE3 080537Z 00004KT 11/02 A2989 RMK A01 T01090019  RH  054%=      5-min Rain = 0
KWE3 080538Z 00004KT 11/02 A2989 RMK A01 T01100018  RH  053%=      5-min Rain = 0
KWE3 080539Z 35004KT 11/02 A2989 RMK A01 T01100018  RH  053%=      5-min Rain = 0
KWE3 080540Z 35003KT 11/02 A2989 RMK A01 T01100019  RH  054%=      5-min Rain = 0
KWE3 080541Z 34003KT 11/02 A2989 RMK A01 T01090020  RH  054%=      5-min Rain = 0
KWE3 080542Z 34003KT 11/02 A2989 RMK A01 T01080019  RH  054%=      5-min Rain = 0
KWE3 080543Z 33002KT 11/02 A2989 RMK A01 T01070019  RH  055%=      5-min Rain = 0
KWE3 080544Z 32002KT 11/02 A2989 RMK A01 T01070018  RH  054%=      5-min Rain = 0
KWE3 080545Z 32002KT 11/02 A2989 RMK A01 T01080018  RH  054%=      5-min Rain = 0
KWE3 080546Z 33002KT 11/02 A2989 RMK A01 T01080017  RH  054%=      5-min Rain = 0
KWE3 080547Z 33002KT 11/02 A2989 RMK A01 T01090017  RH  053%=      5-min Rain = 0
KWE3 080548Z 33002KT 11/02 A2989 RMK A01 T01100016  RH  052%=      5-min Rain = 0
KWE3 080549Z 32002KT 11/02 A2989 RMK A01 T01120016  RH  052%=      5-min Rain = 0
KWE3 080550Z 31002KT 11/02 A2989 RMK A01 T01140016  RH  051%=      5-min Rain = 0
KWE3 080551Z 30001KT 12/02 A2989 RMK A01 T01150015  RH  050%=      5-min Rain = 0
KWE3 080552Z 29001KT 12/02 A2989 RMK A01 T01160015  RH  050%=      5-min Rain = 0
KWE3 080553Z 26001KT 11/02 A2989 RMK A01 T01130015  RH  051%=      5-min Rain = 0
KWE3 080554Z 23002KT 10/01 A299 RMK A01 T01020012  RH  054%=      5-min Rain = 0
KWE3 080555Z 21003KT 09/01 A299 RMK A01 T00920012  RH  057%=      5-min Rain = 0
KWE3 080556Z 19004KT 09/01 A299 RMK A01 T00850012  RH  060%=      5-min Rain = 0
KWE3 080557Z 19004KT 08/01 A299 RMK A01 T00810013  RH  062%=      5-min Rain = 0
KWE3 080558Z 20004KT 08/02 A299 RMK A01 T00800015  RH  063%=      5-min Rain = 0
KWE3 080559Z 20004KT 08/02 A299 RMK A01 T00800015  RH  064%=      5-min Rain = 0
KWE3 080600Z 21003KT 08/02 A299 RMK A01 T00790017  RH  064%=      5-min Rain = 0
KWE3 080601Z 21002KT 08/02 A299 RMK A01 T00790017  RH  065%=      5-min Rain = 0
KWE3 080602Z 21002KT 08/02 A2989 RMK A01 T00820019  RH  065%=      5-min Rain = 0
KWE3 080603Z 21002KT 08/02 A299 RMK A01 T00840019  RH  064%=      5-min Rain = 0
KWE3 080604Z 22002KT 09/02 A299 RMK A01 T00860019  RH  063%=      5-min Rain = 0
KWE3 080605Z 22002KT 09/02 A299 RMK A01 T00870019  RH  062%=      5-min Rain = 0
KWE3 080606Z 23002KT 09/02 A299 RMK A01 T00880020  RH  062%=      5-min Rain = 0
KWE3 080607Z 23003KT 09/02 A299 RMK A01 T00900021  RH  062%=      5-min Rain = 0
KWE3 080608Z 23003KT 09/02 A299 RMK A01 T00920021  RH  061%=      5-min Rain = 0
KWE3 080609Z 23003KT 09/02 A299 RMK A01 T00940020  RH  060%=      5-min Rain = 0
KWE3 080610Z 23003KT 10/02 A299 RMK A01 T00960020  RH  059%=      5-min Rain = 0
KWE3 080611Z 22004KT 10/02 A299 RMK A01 T00960020  RH  059%=      5-min Rain = 0
KWE3 080612Z 22005KT 10/02 A299 RMK A01 T00950019  RH  059%=      5-min Rain = 0
KWE3 080613Z 23006KT 09/02 A299 RMK A01 T00900018  RH  061%=      5-min Rain = 0
KWE3 080614Z 23005KT 09/02 A299 RMK A01 T00860018  RH  062%=      5-min Rain = 0
KWE3 080615Z 23004KT 09/02 A299 RMK A01 T00850018  RH  062%=      5-min Rain = 0
KWE3 080616Z 23003KT 09/02 A299 RMK A01 T00860017  RH  062%=      5-min Rain = 0
KWE3 080617Z 24003KT 09/02 A299 RMK A01 T00880017  RH  061%=      5-min Rain = 0
KWE3 080618Z 25003KT 09/02 A299 RMK A01 T00920018  RH  060%=      5-min Rain = 0
KWE3 080619Z 25002KT 10/02 A299 RMK A01 T00960017  RH  058%=      5-min Rain = 0
KWE3 080620Z 26002KT 10/02 A299 RMK A01 T00980017  RH  057%=      5-min Rain = 0
KWE3 080621Z 26002KT 10/02 A299 RMK A01 T00980017  RH  057%=      5-min Rain = 0
KWE3 080622Z 27002KT 10/02 A299 RMK A01 T00990017  RH  056%=      5-min Rain = 0
KWE3 080623Z 27002KT 10/02 A299 RMK A01 T01010016  RH  056%=      5-min Rain = 0
KWE3 080624Z 27002KT 10/02 A299 RMK A01 T01030017  RH  055%=      5-min Rain = 0
KWE3 080625Z 27003KT 11/02 A299 RMK A01 T01050017  RH  054%=      5-min Rain = 0
KWE3 080626Z 28003KT 11/02 A299 RMK A01 T01070016  RH  054%=      5-min Rain = 0
KWE3 080627Z 27003KT 11/02 A299 RMK A01 T01080016  RH  053%=      5-min Rain = 0
KWE3 080628Z 23003KT 11/02 A299 RMK A01 T01070016  RH  053%=      5-min Rain = 0
KWE3 080629Z 22005KT 10/02 A299 RMK A01 T01040015  RH  054%=      5-min Rain = 0
KWE3 080630Z 22005KT 10/02 A299 RMK A01 T01000015  RH  055%=      5-min Rain = 0
KWE3 080631Z 22004KT 10/02 A299 RMK A01 T00990015  RH  056%=      5-min Rain = 0
KWE3 080632Z 22004KT 10/02 A299 RMK A01 T00980015  RH  056%=      5-min Rain = 0
KWE3 080633Z 22003KT 10/02 A299 RMK A01 T00960015  RH  057%=      5-min Rain = 0
KWE3 080634Z 22003KT 10/02 A299 RMK A01 T00950015  RH  057%=      5-min Rain = 0
KWE3 080635Z 22003KT 10/02 A299 RMK A01 T00970015  RH  057%=      5-min Rain = 0
KWE3 080636Z 24002KT 10/02 A299 RMK A01 T01000016  RH  056%=      5-min Rain = 0
KWE3 080637Z 25002KT 10/02 A299 RMK A01 T01040016  RH  054%=      5-min Rain = 0
KWE3 080638Z 24002KT 11/02 A299 RMK A01 T01070016  RH  053%=      5-min Rain = 0
KWE3 080639Z 24003KT 11/02 A299 RMK A01 T01080015  RH  053%=      5-min Rain = 0
KWE3 080640Z 24004KT 11/02 A299 RMK A01 T01090015  RH  052%=      5-min Rain = 0
KWE3 080641Z 24004KT 11/02 A299 RMK A01 T01080015  RH  052%=      5-min Rain = 0
KWE3 080642Z 24004KT 11/02 A299 RMK A01 T01070015  RH  053%=      5-min Rain = 0
KWE3 080643Z 25003KT 11/02 A299 RMK A01 T01060015  RH  053%=      5-min Rain = 0
KWE3 080644Z 25003KT 10/02 A299 RMK A01 T01040015  RH  054%=      5-min Rain = 0
KWE3 080645Z 25002KT 10/02 A299 RMK A01 T01030016  RH  055%=      5-min Rain = 0
KWE3 080646Z 26003KT 10/02 A299 RMK A01 T01030017  RH  055%=      5-min Rain = 0
KWE3 080647Z 26003KT 10/02 A299 RMK A01 T01020017  RH  055%=      5-min Rain = 0
KWE3 080648Z 26004KT 10/02 A299 RMK A01 T01020016  RH  055%=      5-min Rain = 0
KWE3 080649Z 26005KT 10/02 A299 RMK A01 T01000017  RH  056%=      5-min Rain = 0
KWE3 080650Z 26006KT 10/02 A299 RMK A01 T00970017  RH  058%=      5-min Rain = 0
KWE3 080651Z 26005KT 09/02 A299 RMK A01 T00930017  RH  059%=      5-min Rain = 0
KWE3 080652Z 26005KT 09/02 A299 RMK A01 T00930017  RH  059%=      5-min Rain = 0
KWE3 080653Z 26004KT 10/02 A299 RMK A01 T00950018  RH  059%=      5-min Rain = 0
KWE3 080654Z 27004KT 10/02 A299 RMK A01 T00960018  RH  058%=      5-min Rain = 0
KWE3 080655Z 27003KT 10/02 A299 RMK A01 T00970018  RH  058%=      5-min Rain = 0
KWE3 080656Z 26003KT 10/02 A299 RMK A01 T00960018  RH  058%=      5-min Rain = 0
KWE3 080657Z 26003KT 10/02 A299 RMK A01 T00950018  RH  059%=      5-min Rain = 0
KWE3 080658Z 26003KT 10/02 A299 RMK A01 T00950018  RH  059%=      5-min Rain = 0
KWE3 080659Z 27004KT 10/02 A299 RMK A01 T00960017  RH  058%=      5-min Rain = 0
KWE3 080700Z 27005KT 10/02 A299 RMK A01 T00980018  RH  057%=      5-min Rain = 0
KWE3 080701Z 27005KT 10/02 A299 RMK A01 T00970018  RH  058%=      5-min Rain = 0
KWE3 080702Z 28005KT 09/02 A299 RMK A01 T00940019  RH  059%=      5-min Rain = 0
KWE3 080703Z 28005KT 09/02 A299 RMK A01 T00930020  RH  060%=      5-min Rain = 0
KWE3 080704Z 28005KT 09/02 A299 RMK A01 T00930021  RH  061%=      5-min Rain = 0
KWE3 080705Z 29005KT 09/02 A2989 RMK A01 T00930021  RH  061%=      5-min Rain = 0
KWE3 080706Z 29006KT 09/02 A2989 RMK A01 T00930021  RH  061%=      5-min Rain = 0
KWE3 080707Z 30006KT 09/02 A2989 RMK A01 T00930021  RH  061%=      5-min Rain = 0
KWE3 080708Z 30006KT 09/02 A2989 RMK A01 T00930021  RH  061%=      5-min Rain = 0
KWE3 080709Z 30007KT 09/02 A2989 RMK A01 T00920022  RH  061%=      5-min Rain = 0
KWE3 080710Z 30008KT 09/02 A2989 RMK A01 T00910022  RH  062%=      5-min Rain = 0
KWE3 080711Z 29008KT 09/02 A2989 RMK A01 T00900023  RH  063%=      5-min Rain = 0
KWE3 080712Z 29008KT 09/02 A2989 RMK A01 T00890023  RH  063%=      5-min Rain = 0
KWE3 080713Z 29008KT 09/02 A2989 RMK A01 T00890024  RH  063%=      5-min Rain = 0
KWE3 080714Z 30008KT 09/02 A2989 RMK A01 T00890023  RH  063%=      5-min Rain = 0
KWE3 080715Z 30007KT 09/02 A2989 RMK A01 T00900023  RH  063%=      5-min Rain = 0
KWE3 080716Z 30007KT 09/02 A2989 RMK A01 T00900023  RH  063%=      5-min Rain = 0
KWE3 080717Z 30007KT 09/02 A2989 RMK A01 T00900023  RH  063%=      5-min Rain = 0
KWE3 080718Z 30008KT 09/02 A2989 RMK A01 T00900023  RH  063%=      5-min Rain = 0
KWE3 080719Z 30008KT 09/02 A2989 RMK A01 T00900023  RH  063%=      5-min Rain = 0
KWE3 080720Z 30007KT 09/02 A2989 RMK A01 T00890023  RH  063%=      5-min Rain = 0
KWE3 080721Z 30007KT 09/02 A2989 RMK A01 T00890023  RH  063%=      5-min Rain = 0
KWE3 080722Z 30007KT 09/02 A2989 RMK A01 T00890023  RH  063%=      5-min Rain = 0
KWE3 080723Z 30009KT 09/02 A2989 RMK A01 T00890023  RH  063%=      5-min Rain = 0
KWE3 080724Z 30009KT 09/02 A2989 RMK A01 T00880023  RH  064%=      5-min Rain = 0
KWE3 080725Z 29009KT 09/02 A2989 RMK A01 T00880023  RH  064%=      5-min Rain = 0
KWE3 080726Z 30008KT 09/02 A2989 RMK A01 T00880022  RH  063%=      5-min Rain = 0
KWE3 080727Z 30007KT 09/02 A2989 RMK A01 T00890022  RH  063%=      5-min Rain = 0
KWE3 080728Z 30007KT 09/02 A2989 RMK A01 T00890022  RH  062%=      5-min Rain = 0
KWE3 080729Z 30007KT 09/02 A2989 RMK A01 T00900022  RH  062%=      5-min Rain = 0
KWE3 080730Z 30007KT 09/02 A2989 RMK A01 T00900021  RH  062%=      5-min Rain = 0
KWE3 080731Z 30007KT 09/02 A2989 RMK A01 T00910022  RH  062%=      5-min Rain = 0
KWE3 080732Z 31007KT 09/02 A2989 RMK A01 T00900022  RH  062%=      5-min Rain = 0
KWE3 080733Z 31008KT 09/02 A2989 RMK A01 T00900022  RH  062%=      5-min Rain = 0
KWE3 080734Z 31008KT 09/02 A2989 RMK A01 T00890022  RH  063%=      5-min Rain = 0
KWE3 080735Z 30008KT 09/02 A2989 RMK A01 T00890022  RH  063%=      5-min Rain = 0
KWE3 080736Z 30008KT 09/02 A2989 RMK A01 T00890022  RH  063%=      5-min Rain = 0
KWE3 080737Z 30009KT 09/02 A2989 RMK A01 T00890021  RH  063%=      5-min Rain = 0
KWE3 080738Z 30009KT 09/02 A2989 RMK A01 T00890021  RH  062%=      5-min Rain = 0
KWE3 080739Z 30008KT 09/02 A2989 RMK A01 T00890021  RH  062%=      5-min Rain = 0
KWE3 080740Z 31007KT 09/02 A2989 RMK A01 T00900020  RH  062%=      5-min Rain = 0
KWE3 080741Z 31006KT 09/02 A2989 RMK A01 T00910020  RH  061%=      5-min Rain = 0
KWE3 080742Z 30006KT 09/02 A2989 RMK A01 T00910020  RH  061%=      5-min Rain = 0
KWE3 080743Z 30006KT 09/02 A2989 RMK A01 T00900021  RH  062%=      5-min Rain = 0
KWE3 080744Z 30007KT 09/02 A2989 RMK A01 T00900021  RH  062%=      5-min Rain = 0
KWE3 080745Z 30007KT 09/02 A2989 RMK A01 T00890021  RH  062%=      5-min Rain = 0
KWE3 080746Z 30007KT 09/02 A2989 RMK A01 T00890021  RH  062%=      5-min Rain = 0
KWE3 080747Z 31006KT 09/02 A2988 RMK A01 T00880021  RH  063%=      5-min Rain = 0
KWE3 080748Z 31006KT 09/02 A2988 RMK A01 T00880021  RH  063%=      5-min Rain = 0
KWE3 080749Z 30007KT 09/02 A2988 RMK A01 T00880021  RH  063%=      5-min Rain = 0
KWE3 080750Z 29008KT 09/02 A2988 RMK A01 T00870021  RH  063%=      5-min Rain = 0
KWE3 080751Z 29008KT 09/02 A2988 RMK A01 T00860021  RH  063%=      5-min Rain = 0
KWE3 080752Z 30006KT 09/02 A2988 RMK A01 T00860021  RH  064%=      5-min Rain = 0
KWE3 080753Z 30006KT 09/02 A2988 RMK A01 T00860021  RH  064%=      5-min Rain = 0
KWE3 080754Z 29008KT 09/02 A2988 RMK A01 T00860021  RH  064%=      5-min Rain = 0
KWE3 080755Z 30007KT 09/02 A2988 RMK A01 T00850021  RH  064%=      5-min Rain = 0
KWE3 080756Z 29007KT 09/02 A2988 RMK A01 T00850021  RH  064%=      5-min Rain = 0
KWE3 080757Z 29008KT 09/02 A2988 RMK A01 T00850021  RH  064%=      5-min Rain = 0
KWE3 080758Z 29008KT 09/02 A2988 RMK A01 T00850021  RH  064%=      5-min Rain = 0
KWE3 080759Z 29009KT 09/02 A2988 RMK A01 T00850021  RH  064%=      5-min Rain = 0
KWE3 080800Z 29009KT 09/02 A2988 RMK A01 T00850021  RH  064%=      5-min Rain = 0
KWE3 080801Z 29008KT 09/02 A2988 RMK A01 T00850021  RH  064%=      5-min Rain = 0
KWE3 080802Z 29007KT 09/02 A2988 RMK A01 T00860021  RH  063%=      5-min Rain = 0
KWE3 080803Z 30007KT 09/02 A2988 RMK A01 T00870021  RH  063%=      5-min Rain = 0
KWE3 080804Z 30007KT 09/02 A2988 RMK A01 T00870021  RH  063%=      5-min Rain = 0
KWE3 080805Z 30007KT 09/02 A2988 RMK A01 T00870021  RH  064%=      5-min Rain = 0
KWE3 080806Z 30007KT 09/02 A2988 RMK A01 T00860021  RH  064%=      5-min Rain = 0
KWE3 080807Z 30007KT 09/02 A2988 RMK A01 T00850021  RH  064%=      5-min Rain = 0
KWE3 080808Z 30008KT 09/02 A2988 RMK A01 T00850021  RH  064%=      5-min Rain = 0
KWE3 080809Z 29008KT 09/02 A2988 RMK A01 T00850022  RH  064%=      5-min Rain = 0
KWE3 080810Z 29008KT 09/02 A2988 RMK A01 T00850022  RH  065%=      5-min Rain = 0
KWE3 080811Z 29007KT 09/02 A2988 RMK A01 T00850022  RH  065%=      5-min Rain = 0
KWE3 080812Z 28007KT 08/02 A2988 RMK A01 T00840022  RH  065%=      5-min Rain = 0
KWE3 080813Z 28006KT 08/02 A2988 RMK A01 T00840022  RH  065%=      5-min Rain = 0
KWE3 080814Z 28006KT 08/02 A2988 RMK A01 T00840022  RH  065%=      5-min Rain = 0
KWE3 080815Z 28006KT 08/02 A2988 RMK A01 T00830020  RH  065%=      5-min Rain = 0
KWE3 080816Z 29006KT 08/02 A2988 RMK A01 T00830020  RH  065%=      5-min Rain = 0
KWE3 080817Z 29006KT 08/02 A2988 RMK A01 T00830021  RH  065%=      5-min Rain = 0
KWE3 080818Z 29006KT 08/02 A2988 RMK A01 T00830021  RH  065%=      5-min Rain = 0
KWE3 080819Z 28006KT 08/02 A2988 RMK A01 T00830021  RH  065%=      5-min Rain = 0
KWE3 080820Z 28006KT 08/02 A2988 RMK A01 T00830021  RH  065%=      5-min Rain = 0
KWE3 080821Z 29006KT 08/02 A2988 RMK A01 T00820021  RH  065%=      5-min Rain = 0
KWE3 080822Z 28006KT 08/02 A2988 RMK A01 T00820021  RH  066%=      5-min Rain = 0
KWE3 080823Z 28006KT 08/02 A2988 RMK A01 T00810021  RH  066%=      5-min Rain = 0
KWE3 080824Z 28007KT 08/02 A2988 RMK A01 T00800021  RH  066%=      5-min Rain = 0
KWE3 080825Z 28007KT 08/02 A2988 RMK A01 T00800021  RH  066%=      5-min Rain = 0
KWE3 080826Z 28007KT 08/02 A2988 RMK A01 T00800021  RH  066%=      5-min Rain = 0
KWE3 080827Z 28007KT 08/02 A2988 RMK A01 T00810021  RH  066%=      5-min Rain = 0
KWE3 080828Z 28007KT 08/02 A2988 RMK A01 T00810022  RH  066%=      5-min Rain = 0
KWE3 080829Z 28007KT 08/02 A2988 RMK A01 T00810021  RH  066%=      5-min Rain = 0
KWE3 080830Z 28007KT 08/02 A2988 RMK A01 T00820021  RH  066%=      5-min Rain = 0
KWE3 080831Z 28006KT 08/02 A2988 RMK A01 T00820022  RH  066%=      5-min Rain = 0
KWE3 080832Z 28007KT 08/02 A2988 RMK A01 T00820022  RH  066%=      5-min Rain = 0
KWE3 080833Z 28006KT 08/02 A2988 RMK A01 T00820022  RH  066%=      5-min Rain = 0
KWE3 080834Z 28007KT 08/02 A2988 RMK A01 T00820022  RH  066%=      5-min Rain = 0
KWE3 080835Z 28006KT 08/02 A2988 RMK A01 T00820022  RH  066%=      5-min Rain = 0
KWE3 080836Z 28007KT 08/02 A2988 RMK A01 T00820022  RH  066%=      5-min Rain = 0
KWE3 080837Z 27007KT 08/02 A2988 RMK A01 T00820022  RH  066%=      5-min Rain = 0
KWE3 080838Z 28008KT 08/02 A2988 RMK A01 T00820022  RH  066%=      5-min Rain = 0
KWE3 080839Z 27008KT 08/02 A2988 RMK A01 T00830022  RH  065%=      5-min Rain = 0
KWE3 080840Z 27007KT 08/02 A2988 RMK A01 T00830021  RH  065%=      5-min Rain = 0
KWE3 080841Z 27007KT 08/02 A2988 RMK A01 T00840021  RH  065%=      5-min Rain = 0
KWE3 080842Z 27007KT 08/02 A2988 RMK A01 T00840021  RH  065%=      5-min Rain = 0
KWE3 080843Z 27007KT 08/02 A2988 RMK A01 T00840022  RH  065%=      5-min Rain = 0
KWE3 080844Z 27008KT 08/02 A2988 RMK A01 T00830022  RH  065%=      5-min Rain = 0
KWE3 080845Z 27007KT 08/02 A2988 RMK A01 T00830021  RH  065%=      5-min Rain = 0
KWE3 080846Z 26007KT 08/02 A2988 RMK A01 T00830020  RH  064%=      5-min Rain = 0
KWE3 080847Z 26007KT 08/02 A2988 RMK A01 T00830018  RH  064%=      5-min Rain = 0
KWE3 080848Z 26007KT 08/02 A2988 RMK A01 T00840018  RH  063%=      5-min Rain = 0
KWE3 080849Z 26007KT 08/02 A2988 RMK A01 T00840018  RH  063%=      5-min Rain = 0
KWE3 080850Z 26007KT 08/02 A2988 RMK A01 T00840018  RH  063%=      5-min Rain = 0
KWE3 080851Z 26007KT 08/02 A2988 RMK A01 T00840018  RH  063%=      5-min Rain = 0
KWE3 080852Z 26007KT 08/02 A2988 RMK A01 T00840018  RH  063%=      5-min Rain = 0
KWE3 080853Z 26006KT 08/02 A2988 RMK A01 T00840018  RH  063%=      5-min Rain = 0
KWE3 080854Z 26006KT 09/02 A2988 RMK A01 T00850018  RH  063%=      5-min Rain = 0
KWE3 080855Z 26006KT 09/02 A2988 RMK A01 T00850018  RH  063%=      5-min Rain = 0
KWE3 080856Z 26006KT 09/02 A2988 RMK A01 T00860018  RH  063%=      5-min Rain = 0
KWE3 080857Z 26006KT 09/02 A2988 RMK A01 T00860018  RH  063%=      5-min Rain = 0
KWE3 080858Z 26006KT 09/02 A2988 RMK A01 T00860018  RH  062%=      5-min Rain = 0
KWE3 080859Z 26006KT 09/02 A2988 RMK A01 T00870018  RH  062%=      5-min Rain = 0
KWE3 080900Z 26006KT 09/02 A2988 RMK A01 T00880018  RH  062%=      5-min Rain = 0
KWE3 080901Z 26006KT 09/02 A2988 RMK A01 T00890018  RH  061%=      5-min Rain = 0
KWE3 080902Z 26007KT 09/02 A2988 RMK A01 T00890018  RH  061%=      5-min Rain = 0
KWE3 080903Z 26007KT 09/02 A2988 RMK A01 T00890018  RH  061%=      5-min Rain = 0
KWE3 080904Z 27007KT 09/02 A2988 RMK A01 T00890019  RH  061%=      5-min Rain = 0
KWE3 080905Z 28007KT 09/02 A2988 RMK A01 T00880019  RH  062%=      5-min Rain = 0
KWE3 080906Z 28007KT 09/02 A2988 RMK A01 T00870020  RH  063%=      5-min Rain = 0
KWE3 080907Z 28007KT 09/02 A2988 RMK A01 T00860020  RH  063%=      5-min Rain = 0
KWE3 080908Z 28007KT 09/02 A2987 RMK A01 T00850020  RH  064%=      5-min Rain = 0
KWE3 080909Z 28007KT 09/02 A2987 RMK A01 T00850020  RH  064%=      5-min Rain = 0
KWE3 080910Z 27007KT 08/02 A2987 RMK A01 T00840020  RH  064%=      5-min Rain = 0
KWE3 080911Z 28007KT 08/02 A2987 RMK A01 T00840020  RH  064%=      5-min Rain = 0
KWE3 080912Z 28007KT 08/02 A2987 RMK A01 T00840020  RH  064%=      5-min Rain = 0
KWE3 080913Z 28006KT 08/02 A2987 RMK A01 T00830020  RH  065%=      5-min Rain = 0
KWE3 080914Z 29006KT 08/02 A2987 RMK A01 T00830021  RH  065%=      5-min Rain = 0
KWE3 080915Z 29006KT 08/02 A2987 RMK A01 T00820021  RH  065%=      5-min Rain = 0
KWE3 080916Z 29006KT 08/02 A2987 RMK A01 T00810021  RH  066%=      5-min Rain = 0
KWE3 080917Z 29005KT 08/02 A2987 RMK A01 T00800021  RH  067%=      5-min Rain = 0
KWE3 080918Z 28005KT 08/02 A2987 RMK A01 T00790021  RH  067%=      5-min Rain = 0
KWE3 080919Z 28005KT 08/02 A2987 RMK A01 T00770021  RH  068%=      5-min Rain = 0
KWE3 080920Z 29005KT 08/02 A2987 RMK A01 T00770021  RH  068%=      5-min Rain = 0
KWE3 080921Z 29005KT 08/02 A2987 RMK A01 T00760021  RH  068%=      5-min Rain = 0
KWE3 080922Z 29005KT 08/02 A2987 RMK A01 T00760021  RH  068%=      5-min Rain = 0
KWE3 080923Z 29006KT 08/02 A2987 RMK A01 T00760021  RH  068%=      5-min Rain = 0
KWE3 080924Z 29006KT 08/02 A2987 RMK A01 T00760020  RH  068%=      5-min Rain = 0
KWE3 080925Z 29006KT 08/02 A2987 RMK A01 T00770020  RH  067%=      5-min Rain = 0
KWE3 080926Z 29006KT 08/02 A2987 RMK A01 T00780021  RH  067%=      5-min Rain = 0
KWE3 080927Z 28006KT 08/02 A2987 RMK A01 T00790021  RH  067%=      5-min Rain = 0
KWE3 080928Z 28006KT 08/02 A2987 RMK A01 T00800021  RH  066%=      5-min Rain = 0
KWE3 080929Z 27006KT 08/02 A2987 RMK A01 T00810021  RH  066%=      5-min Rain = 0
KWE3 080930Z 27007KT 08/02 A2987 RMK A01 T00810020  RH  065%=      5-min Rain = 0
KWE3 080931Z 28007KT 08/02 A2987 RMK A01 T00810019  RH  065%=      5-min Rain = 0
KWE3 080932Z 27007KT 08/02 A2987 RMK A01 T00810020  RH  065%=      5-min Rain = 0
KWE3 080933Z 28007KT 08/02 A2987 RMK A01 T00810021  RH  066%=      5-min Rain = 0
KWE3 080934Z 28007KT 08/02 A2987 RMK A01 T00810021  RH  066%=      5-min Rain = 0
KWE3 080935Z 28007KT 08/02 A2987 RMK A01 T00810022  RH  066%=      5-min Rain = 0
KWE3 080936Z 29007KT 08/02 A2987 RMK A01 T00810022  RH  066%=      5-min Rain = 0
KWE3 080937Z 29007KT 08/02 A2987 RMK A01 T00800022  RH  067%=      5-min Rain = 0
KWE3 080938Z 28007KT 08/02 A2987 RMK A01 T00800022  RH  067%=      5-min Rain = 0
KWE3 080939Z 28006KT 08/02 A2987 RMK A01 T00800021  RH  067%=      5-min Rain = 0
KWE3 080940Z 28006KT 08/02 A2987 RMK A01 T00800021  RH  067%=      5-min Rain = 0
KWE3 080941Z 27007KT 08/02 A2987 RMK A01 T00800021  RH  066%=      5-min Rain = 0
KWE3 080942Z 27008KT 08/02 A2987 RMK A01 T00800020  RH  066%=      5-min Rain = 0
KWE3 080943Z 27008KT 08/02 A2987 RMK A01 T00810020  RH  066%=      5-min Rain = 0
KWE3 080944Z 27008KT 08/02 A2987 RMK A01 T00800020  RH  066%=      5-min Rain = 0
KWE3 080945Z 27007KT 08/02 A2987 RMK A01 T00800020  RH  066%=      5-min Rain = 0
KWE3 080946Z 27008KT 08/02 A2987 RMK A01 T00800020  RH  066%=      5-min Rain = 0
KWE3 080947Z 27008KT 08/02 A2987 RMK A01 T00800020  RH  066%=      5-min Rain = 0
KWE3 080948Z 27008KT 08/02 A2987 RMK A01 T00800020  RH  066%=      5-min Rain = 0
KWE3 080949Z 27008KT 08/02 A2987 RMK A01 T00800020  RH  066%=      5-min Rain = 0
KWE3 080950Z 27008KT 08/02 A2987 RMK A01 T00790020  RH  066%=      5-min Rain = 0
KWE3 080951Z 27008KT 08/02 A2987 RMK A01 T00790019  RH  066%=      5-min Rain = 0
KWE3 080952Z 27008KT 08/02 A2987 RMK A01 T00780020  RH  066%=      5-min Rain = 0
KWE3 080953Z 27008KT 08/02 A2987 RMK A01 T00780020  RH  066%=      5-min Rain = 0
KWE3 080954Z 27007KT 08/02 A2987 RMK A01 T00780020  RH  067%=      5-min Rain = 0
KWE3 080955Z 27007KT 08/02 A2987 RMK A01 T00780019  RH  067%=      5-min Rain = 0
KWE3 080956Z 27008KT 08/02 A2987 RMK A01 T00770019  RH  067%=      5-min Rain = 0
KWE3 080957Z 27008KT 08/02 A2987 RMK A01 T00770019  RH  067%=      5-min Rain = 0
KWE3 080958Z 27008KT 08/02 A2987 RMK A01 T00770018  RH  066%=      5-min Rain = 0
KWE3 080959Z 26008KT 08/02 A2987 RMK A01 T00770018  RH  066%=      5-min Rain = 0
KWE3 081000Z 27008KT 08/02 A2987 RMK A01 T00780018  RH  066%=      5-min Rain = 0
KWE3 081001Z 26008KT 08/02 A2987 RMK A01 T00790018  RH  066%=      5-min Rain = 0
KWE3 081002Z 26009KT 08/02 A2987 RMK A01 T00800018  RH  065%=      5-min Rain = 0
KWE3 081003Z 26009KT 08/02 A2987 RMK A01 T00810018  RH  065%=      5-min Rain = 0
KWE3 081004Z 26009KT 08/02 A2987 RMK A01 T00810018  RH  064%=      5-min Rain = 0
KWE3 081005Z 26008KT 08/02 A2987 RMK A01 T00810018  RH  064%=      5-min Rain = 0
KWE3 081006Z 25008KT 08/02 A2987 RMK A01 T00810018  RH  065%=      5-min Rain = 0
KWE3 081007Z 25008KT 08/02 A2987 RMK A01 T00820018  RH  064%=      5-min Rain = 0
KWE3 081008Z 26008KT 08/02 A2987 RMK A01 T00830018  RH  064%=      5-min Rain = 0
KWE3 081009Z 26008KT 08/02 A2987 RMK A01 T00830018  RH  064%=      5-min Rain = 0
KWE3 081010Z 26009KT 08/02 A2987 RMK A01 T00830018  RH  064%=      5-min Rain = 0
KWE3 081011Z 26009KT 08/02 A2987 RMK A01 T00820018  RH  064%=      5-min Rain = 0
KWE3 081012Z 26009KT 08/02 A2987 RMK A01 T00820018  RH  064%=      5-min Rain = 0
KWE3 081013Z 26009KT 08/02 A2987 RMK A01 T00810018  RH  064%=      5-min Rain = 0
KWE3 081014Z 26008KT 08/02 A2987 RMK A01 T00810018  RH  065%=      5-min Rain = 0
KWE3 081015Z 26009KT 08/02 A2987 RMK A01 T00800018  RH  065%=      5-min Rain = 0
KWE3 081016Z 26009KT 08/02 A2987 RMK A01 T00800018  RH  065%=      5-min Rain = 0
KWE3 081017Z 26009KT 08/02 A2987 RMK A01 T00800018  RH  065%=      5-min Rain = 0
KWE3 081018Z 26009KT 08/02 A2986 RMK A01 T00800018  RH  065%=      5-min Rain = 0
KWE3 081019Z 26009KT 08/02 A2986 RMK A01 T00800018  RH  065%=      5-min Rain = 0
KWE3 081020Z 26009KT 08/02 A2986 RMK A01 T00810018  RH  065%=      5-min Rain = 0
KWE3 081021Z 26009KT 08/02 A2986 RMK A01 T00810018  RH  065%=      5-min Rain = 0
KWE3 081022Z 26009KT 08/02 A2986 RMK A01 T00810019  RH  065%=      5-min Rain = 0
KWE3 081023Z 27009KT 08/02 A2986 RMK A01 T00810019  RH  065%=      5-min Rain = 0
KWE3 081024Z 27009KT 08/02 A2986 RMK A01 T00800019  RH  065%=      5-min Rain = 0
KWE3 081025Z 27009KT 08/02 A2986 RMK A01 T00800019  RH  066%=      5-min Rain = 0
KWE3 081026Z 27009KT 08/02 A2986 RMK A01 T00800019  RH  066%=      5-min Rain = 0
KWE3 081027Z 27009KT 08/02 A2986 RMK A01 T00800019  RH  065%=      5-min Rain = 0
KWE3 081028Z 27009KT 08/02 A2986 RMK A01 T00800019  RH  065%=      5-min Rain = 0
KWE3 081029Z 27009KT 08/02 A2986 RMK A01 T00800019  RH  065%=      5-min Rain = 0
KWE3 081030Z 27010KT 08/02 A2986 RMK A01 T00800019  RH  065%=      5-min Rain = 0
KWE3 081031Z 27010KT 08/02 A2986 RMK A01 T00800019  RH  065%=      5-min Rain = 0
KWE3 081032Z 27010KT 08/02 A2986 RMK A01 T00810019  RH  065%=      5-min Rain = 0
KWE3 081033Z 27010KT 08/02 A2986 RMK A01 T00820019  RH  064%=      5-min Rain = 0
KWE3 081034Z 27010KT 08/02 A2986 RMK A01 T00820019  RH  064%=      5-min Rain = 0
KWE3 081035Z 27010KT 08/02 A2986 RMK A01 T00820019  RH  064%=      5-min Rain = 0
KWE3 081036Z 27009KT 08/02 A2986 RMK A01 T00820019  RH  065%=      5-min Rain = 0
KWE3 081037Z 27009KT 08/02 A2986 RMK A01 T00820019  RH  065%=      5-min Rain = 0
KWE3 081038Z 27009KT 08/02 A2986 RMK A01 T00810019  RH  065%=      5-min Rain = 0
KWE3 081039Z 27009KT 08/02 A2986 RMK A01 T00810019  RH  065%=      5-min Rain = 0
KWE3 081040Z 27009KT 08/02 A2986 RMK A01 T00810019  RH  065%=      5-min Rain = 0
KWE3 081041Z 27009KT 08/02 A2986 RMK A01 T00810019  RH  065%=      5-min Rain = 0
KWE3 081042Z 27009KT 08/02 A2986 RMK A01 T00810019  RH  065%=      5-min Rain = 0
KWE3 081043Z 27009KT 08/02 A2986 RMK A01 T00810019  RH  065%=      5-min Rain = 0
KWE3 081044Z 27009KT 08/02 A2986 RMK A01 T00810019  RH  065%=      5-min Rain = 0
KWE3 081045Z 27009KT 08/02 A2986 RMK A01 T00810018  RH  065%=      5-min Rain = 0
KWE3 081046Z 27009KT 08/02 A2986 RMK A01 T00810018  RH  064%=      5-min Rain = 0
KWE3 081047Z 27010KT 08/02 A2986 RMK A01 T00810018  RH  064%=      5-min Rain = 0
KWE3 081048Z 27010KT 08/02 A2986 RMK A01 T00810018  RH  064%=      5-min Rain = 0
KWE3 081049Z 27009KT 08/02 A2986 RMK A01 T00810018  RH  064%=      5-min Rain = 0
KWE3 081050Z 27010KT 08/02 A2986 RMK A01 T00810018  RH  064%=      5-min Rain = 0
KWE3 081051Z 27010KT 08/02 A2986 RMK A01 T00820018  RH  064%=      5-min Rain = 0
KWE3 081052Z 27010KT 08/02 A2986 RMK A01 T00830018  RH  064%=      5-min Rain = 0
KWE3 081053Z 27010KT 08/02 A2986 RMK A01 T00840019  RH  063%=      5-min Rain = 0
KWE3 081054Z 27010KT 08/02 A2986 RMK A01 T00840018  RH  063%=      5-min Rain = 0
KWE3 081055Z 27010KT 09/02 A2986 RMK A01 T00850018  RH  063%=      5-min Rain = 0
KWE3 081056Z 27010KT 09/02 A2986 RMK A01 T00850018  RH  063%=      5-min Rain = 0
KWE3 081057Z 27010KT 09/02 A2986 RMK A01 T00850018  RH  063%=      5-min Rain = 0
KWE3 081058Z 27011KT 09/02 A2986 RMK A01 T00860018  RH  062%=      5-min Rain = 0
KWE3 081059Z 27010KT 09/02 A2986 RMK A01 T00870018  RH  062%=      5-min Rain = 0
KWE3 081100Z 27011KT 09/02 A2986 RMK A01 T00870018  RH  062%=      5-min Rain = 0
KWE3 081101Z 27010KT 09/02 A2986 RMK A01 T00880018  RH  061%=      5-min Rain = 0
KWE3 081102Z 27010KT 09/02 A2986 RMK A01 T00880017  RH  061%=      5-min Rain = 0
KWE3 081103Z 27011KT 09/02 A2986 RMK A01 T00890017  RH  061%=      5-min Rain = 0
KWE3 081104Z 26011KT 09/02 A2986 RMK A01 T00890017  RH  061%=      5-min Rain = 0
KWE3 081105Z 26011KT 09/02 A2986 RMK A01 T00890017  RH  061%=      5-min Rain = 0
KWE3 081106Z 26011KT 09/02 A2986 RMK A01 T00880017  RH  061%=      5-min Rain = 0
KWE3 081107Z 27011KT 09/02 A2986 RMK A01 T00880017  RH  061%=      5-min Rain = 0
KWE3 081108Z 27011KT 09/02 A2986 RMK A01 T00870017  RH  061%=      5-min Rain = 0
KWE3 081109Z 27011KT 09/02 A2986 RMK A01 T00870017  RH  062%=      5-min Rain = 0
KWE3 081110Z 27011KT 09/02 A2986 RMK A01 T00860017  RH  062%=      5-min Rain = 0
KWE3 081111Z 27011KT 09/02 A2986 RMK A01 T00850017  RH  062%=      5-min Rain = 0
KWE3 081112Z 27011KT 09/02 A2986 RMK A01 T00850017  RH  062%=      5-min Rain = 0
KWE3 081113Z 27011KT 09/02 A2986 RMK A01 T00850017  RH  062%=      5-min Rain = 0
KWE3 081114Z 27011KT 09/02 A2986 RMK A01 T00850017  RH  062%=      5-min Rain = 0
KWE3 081115Z 27010KT 09/02 A2986 RMK A01 T00850017  RH  062%=      5-min Rain = 0
KWE3 081116Z 27010KT 09/02 A2986 RMK A01 T00860017  RH  062%=      5-min Rain = 0
KWE3 081117Z 27011KT 09/02 A2986 RMK A01 T00870017  RH  061%=      5-min Rain = 0
KWE3 081118Z 27010KT 09/02 A2986 RMK A01 T00870017  RH  061%=      5-min Rain = 0
KWE3 081119Z 27010KT 09/02 A2987 RMK A01 T00870017  RH  061%=      5-min Rain = 0
KWE3 081120Z 27010KT 09/02 A2987 RMK A01 T00870017  RH  062%=      5-min Rain = 0
KWE3 081121Z 27011KT 09/02 A2986 RMK A01 T00870017  RH  062%=      5-min Rain = 0
KWE3 081122Z 27010KT 09/02 A2986 RMK A01 T00860017  RH  062%=      5-min Rain = 0
KWE3 081123Z 27010KT 09/02 A2986 RMK A01 T00860017  RH  062%=      5-min Rain = 0
KWE3 081124Z 27010KT 09/02 A2986 RMK A01 T00870017  RH  062%=      5-min Rain = 0
KWE3 081125Z 27010KT 09/02 A2986 RMK A01 T00870017  RH  062%=      5-min Rain = 0
KWE3 081126Z 27010KT 09/02 A2986 RMK A01 T00870017  RH  062%=      5-min Rain = 0
KWE3 081127Z 27010KT 09/02 A2986 RMK A01 T00860017  RH  062%=      5-min Rain = 0
KWE3 081128Z 27010KT 09/02 A2986 RMK A01 T00850017  RH  062%=      5-min Rain = 0
KWE3 081129Z 27010KT 09/02 A2986 RMK A01 T00850017  RH  062%=      5-min Rain = 0
KWE3 081130Z 27010KT 09/02 A2986 RMK A01 T00850017  RH  062%=      5-min Rain = 0
KWE3 081131Z 27010KT 09/02 A2986 RMK A01 T00850017  RH  062%=      5-min Rain = 0
KWE3 081132Z 27010KT 09/02 A2986 RMK A01 T00850017  RH  062%=      5-min Rain = 0
KWE3 081133Z 27010KT 09/02 A2986 RMK A01 T00860017  RH  062%=      5-min Rain = 0
KWE3 081134Z 27010KT 09/02 A2986 RMK A01 T00860017  RH  062%=      5-min Rain = 0
KWE3 081135Z 27010KT 09/02 A2986 RMK A01 T00860017  RH  062%=      5-min Rain = 0
KWE3 081136Z 27010KT 09/02 A2986 RMK A01 T00860017  RH  061%=      5-min Rain = 0
KWE3 081137Z 27010KT 09/02 A2986 RMK A01 T00870017  RH  061%=      5-min Rain = 0
KWE3 081138Z 27010KT 09/02 A2986 RMK A01 T00870017  RH  061%=      5-min Rain = 0
KWE3 081139Z 27010KT 09/02 A2986 RMK A01 T00880016  RH  061%=      5-min Rain = 0
KWE3 081140Z 27010KT 09/02 A2986 RMK A01 T00880016  RH  061%=      5-min Rain = 0
KWE3 081141Z 27010KT 09/02 A2986 RMK A01 T00890016  RH  060%=      5-min Rain = 0
KWE3 081142Z 27010KT 09/02 A2986 RMK A01 T00890016  RH  060%=      5-min Rain = 0
KWE3 081143Z 27010KT 09/02 A2986 RMK A01 T00890016  RH  061%=      5-min Rain = 0
KWE3 081144Z 27010KT 09/02 A2986 RMK A01 T00880016  RH  061%=      5-min Rain = 0
KWE3 081145Z 27010KT 09/02 A2986 RMK A01 T00880016  RH  061%=      5-min Rain = 0
KWE3 081146Z 27010KT 09/02 A2986 RMK A01 T00870016  RH  061%=      5-min Rain = 0
KWE3 081147Z 27010KT 09/02 A2986 RMK A01 T00870016  RH  061%=      5-min Rain = 0
KWE3 081148Z 27010KT 09/02 A2986 RMK A01 T00860017  RH  062%=      5-min Rain = 0
KWE3 081149Z 27010KT 09/02 A2986 RMK A01 T00860017  RH  062%=      5-min Rain = 0
KWE3 081150Z 27010KT 09/02 A2986 RMK A01 T00870016  RH  061%=      5-min Rain = 0
KWE3 081151Z 27010KT 09/02 A2986 RMK A01 T00880016  RH  061%=      5-min Rain = 0
KWE3 081152Z 27010KT 09/02 A2986 RMK A01 T00880016  RH  061%=      5-min Rain = 0
KWE3 081153Z 27010KT 09/02 A2986 RMK A01 T00890016  RH  060%=      5-min Rain = 0
KWE3 081154Z 27011KT 09/02 A2986 RMK A01 T00900016  RH  060%=      5-min Rain = 0
KWE3 081155Z 27010KT 09/02 A2986 RMK A01 T00910016  RH  059%=      5-min Rain = 0
KWE3 081156Z 27011KT 09/02 A2986 RMK A01 T00910016  RH  059%=      5-min Rain = 0
KWE3 081157Z 27011KT 09/02 A2986 RMK A01 T00910016  RH  059%=      5-min Rain = 0
KWE3 081158Z 27011KT 09/02 A2986 RMK A01 T00920016  RH  059%=      5-min Rain = 0
KWE3 081159Z 27010KT 09/02 A2986 RMK A01 T00920016  RH  059%=      5-min Rain = 0
KWE3 081200Z 27010KT 09/02 A2986 RMK A01 T00910016  RH  059%=      5-min Rain = 0
KWE3 081201Z 27010KT 09/02 A2986 RMK A01 T00910015  RH  059%=      5-min Rain = 0
KWE3 081202Z 26011KT 09/02 A2986 RMK A01 T00910016  RH  059%=      5-min Rain = 0
KWE3 081203Z 26011KT 09/02 A2986 RMK A01 T00910016  RH  059%=      5-min Rain = 0
KWE3 081204Z 27011KT 09/02 A2986 RMK A01 T00900016  RH  060%=      5-min Rain = 0
KWE3 081205Z 27011KT 09/02 A2986 RMK A01 T00900016  RH  060%=      5-min Rain = 0
KWE3 081206Z 27011KT 09/02 A2986 RMK A01 T00890016  RH  060%=      5-min Rain = 0
KWE3 081207Z 27011KT 09/02 A2986 RMK A01 T00890016  RH  060%=      5-min Rain = 0
KWE3 081208Z 27011KT 09/02 A2986 RMK A01 T00880016  RH  060%=      5-min Rain = 0
KWE3 081209Z 27011KT 09/02 A2986 RMK A01 T00880016  RH  061%=      5-min Rain = 0
KWE3 081210Z 27011KT 09/02 A2987 RMK A01 T00880016  RH  061%=      5-min Rain = 0
KWE3 081211Z 27011KT 09/02 A2987 RMK A01 T00880016  RH  060%=      5-min Rain = 0
KWE3 081212Z 27011KT 09/02 A2987 RMK A01 T00890016  RH  060%=      5-min Rain = 0
KWE3 081213Z 26011KT 09/02 A2987 RMK A01 T00890016  RH  060%=      5-min Rain = 0
KWE3 081214Z 27010KT 09/02 A2987 RMK A01 T00900016  RH  060%=      5-min Rain = 0
KWE3 081215Z 27010KT 09/02 A2987 RMK A01 T00910015  RH  059%=      5-min Rain = 0
KWE3 081216Z 27010KT 09/02 A2987 RMK A01 T00910016  RH  059%=      5-min Rain = 0
KWE3 081217Z 27010KT 09/02 A2987 RMK A01 T00910016  RH  059%=      5-min Rain = 0
KWE3 081218Z 27010KT 09/02 A2987 RMK A01 T00910016  RH  059%=      5-min Rain = 0
KWE3 081219Z 27010KT 09/02 A2987 RMK A01 T00910015  RH  059%=      5-min Rain = 0
KWE3 081220Z 27010KT 09/02 A2987 RMK A01 T00910015  RH  059%=      5-min Rain = 0
KWE3 081221Z 27010KT 09/02 A2987 RMK A01 T00910015  RH  059%=      5-min Rain = 0
KWE3 081222Z 27010KT 09/02 A2987 RMK A01 T00910016  RH  059%=      5-min Rain = 0
KWE3 081223Z 27010KT 09/02 A2987 RMK A01 T00900016  RH  060%=      5-min Rain = 0
KWE3 081224Z 27009KT 09/02 A2987 RMK A01 T00900016  RH  060%=      5-min Rain = 0
KWE3 081225Z 27009KT 09/02 A2987 RMK A01 T00900016  RH  060%=      5-min Rain = 0
KWE3 081226Z 27009KT 09/02 A2987 RMK A01 T00890016  RH  060%=      5-min Rain = 0
KWE3 081227Z 27009KT 09/02 A2987 RMK A01 T00890016  RH  060%=      5-min Rain = 0
KWE3 081228Z 27009KT 09/02 A2987 RMK A01 T00890016  RH  060%=      5-min Rain = 0
KWE3 081229Z 27009KT 09/02 A2987 RMK A01 T00890016  RH  060%=      5-min Rain = 0
KWE3 081230Z 27009KT 09/02 A2987 RMK A01 T00880016  RH  061%=      5-min Rain = 0
KWE3 081231Z 27008KT 09/02 A2987 RMK A01 T00880016  RH  061%=      5-min Rain = 0
KWE3 081232Z 27008KT 09/02 A2987 RMK A01 T00880017  RH  061%=      5-min Rain = 0
KWE3 081233Z 28008KT 09/02 A2987 RMK A01 T00870017  RH  061%=      5-min Rain = 0
KWE3 081234Z 27008KT 09/02 A2987 RMK A01 T00870018  RH  062%=      5-min Rain = 0
KWE3 081235Z 28008KT 09/02 A2987 RMK A01 T00870018  RH  062%=      5-min Rain = 0
KWE3 081236Z 28008KT 09/02 A2987 RMK A01 T00880018  RH  062%=      5-min Rain = 0
KWE3 081237Z 28008KT 09/02 A2987 RMK A01 T00880018  RH  062%=      5-min Rain = 0
KWE3 081238Z 28008KT 09/02 A2987 RMK A01 T00880018  RH  061%=      5-min Rain = 0
KWE3 081239Z 28008KT 09/02 A2987 RMK A01 T00890019  RH  061%=      5-min Rain = 0
KWE3 081240Z 28008KT 09/02 A2987 RMK A01 T00890019  RH  061%=      5-min Rain = 0
KWE3 081241Z 28008KT 09/02 A2987 RMK A01 T00890019  RH  061%=      5-min Rain = 0
KWE3 081242Z 28008KT 09/02 A2987 RMK A01 T00900018  RH  061%=      5-min Rain = 0
KWE3 081243Z 28008KT 09/02 A2987 RMK A01 T00900018  RH  061%=      5-min Rain = 0
KWE3 081244Z 28008KT 09/02 A2987 RMK A01 T00910019  RH  061%=      5-min Rain = 0
KWE3 081245Z 28008KT 09/02 A2987 RMK A01 T00910020  RH  061%=      5-min Rain = 0
KWE3 081246Z 28008KT 09/02 A2987 RMK A01 T00910020  RH  061%=      5-min Rain = 0
KWE3 081247Z 28008KT 09/02 A2987 RMK A01 T00910020  RH  061%=      5-min Rain = 0
KWE3 081248Z 28008KT 09/02 A2987 RMK A01 T00910020  RH  061%=      5-min Rain = 0
KWE3 081249Z 28008KT 09/02 A2987 RMK A01 T00920020  RH  061%=      5-min Rain = 0
KWE3 081250Z 28008KT 09/02 A2987 RMK A01 T00920020  RH  061%=      5-min Rain = 0
KWE3 081251Z 27009KT 09/02 A2987 RMK A01 T00930020  RH  060%=      5-min Rain = 0
KWE3 081252Z 27009KT 09/02 A2987 RMK A01 T00940020  RH  060%=      5-min Rain = 0
KWE3 081253Z 28009KT 10/02 A2987 RMK A01 T00950020  RH  060%=      5-min Rain = 0
KWE3 081254Z 27009KT 10/02 A2987 RMK A01 T00950020  RH  059%=      5-min Rain = 0
KWE3 081255Z 27009KT 10/02 A2987 RMK A01 T00960020  RH  059%=      5-min Rain = 0
KWE3 081256Z 27009KT 10/02 A2987 RMK A01 T00960021  RH  059%=      5-min Rain = 0
KWE3 081257Z 27010KT 10/02 A2987 RMK A01 T00970020  RH  059%=      5-min Rain = 0
KWE3 081258Z 27010KT 10/02 A2987 RMK A01 T00980020  RH  058%=      5-min Rain = 0
KWE3 081259Z 27010KT 10/02 A2987 RMK A01 T00990020  RH  058%=      5-min Rain = 0
KWE3 081300Z 27010KT 10/02 A2987 RMK A01 T00990020  RH  058%=      5-min Rain = 0
KWE3 081301Z 27010KT 10/02 A2987 RMK A01 T00990021  RH  058%=      5-min Rain = 0
KWE3 081302Z 27010KT 10/02 A2987 RMK A01 T00990021  RH  058%=      5-min Rain = 0
KWE3 081303Z 27010KT 10/02 A2987 RMK A01 T00990021  RH  058%=      5-min Rain = 0
KWE3 081304Z 27009KT 10/02 A2987 RMK A01 T01000022  RH  058%=      5-min Rain = 0
KWE3 081305Z 27009KT 10/02 A2987 RMK A01 T01010022  RH  058%=      5-min Rain = 0
KWE3 081306Z 27009KT 10/02 A2987 RMK A01 T01020022  RH  058%=      5-min Rain = 0
KWE3 081307Z 27009KT 10/02 A2987 RMK A01 T01020022  RH  058%=      5-min Rain = 0
KWE3 081308Z 27009KT 10/02 A2987 RMK A01 T01030023  RH  058%=      5-min Rain = 0
KWE3 081309Z 27009KT 10/02 A2987 RMK A01 T01040023  RH  057%=      5-min Rain = 0
KWE3 081310Z 27009KT 11/02 A2987 RMK A01 T01050023  RH  057%=      5-min Rain = 0
KWE3 081311Z 27009KT 11/02 A2987 RMK A01 T01060023  RH  056%=      5-min Rain = 0
KWE3 081312Z 27009KT 11/02 A2988 RMK A01 T01060024  RH  057%=      5-min Rain = 0
KWE3 081313Z 27008KT 11/02 A2988 RMK A01 T01070023  RH  056%=      5-min Rain = 0
KWE3 081314Z 27009KT 11/02 A2988 RMK A01 T01070023  RH  056%=      5-min Rain = 0
KWE3 081315Z 27009KT 11/02 A2988 RMK A01 T01080023  RH  056%=      5-min Rain = 0
KWE3 081316Z 27008KT 11/02 A2988 RMK A01 T01080023  RH  056%=      5-min Rain = 0
KWE3 081317Z 26009KT 11/02 A2988 RMK A01 T01080023  RH  056%=      5-min Rain = 0
KWE3 081318Z 26008KT 11/02 A2988 RMK A01 T01080023  RH  056%=      5-min Rain = 0
KWE3 081319Z 26009KT 11/02 A2988 RMK A01 T01080023  RH  055%=      5-min Rain = 0
KWE3 081320Z 26008KT 11/02 A2988 RMK A01 T01090022  RH  055%=      5-min Rain = 0
KWE3 081321Z 26008KT 11/02 A2988 RMK A01 T01100023  RH  055%=      5-min Rain = 0
KWE3 081322Z 26007KT 11/02 A2988 RMK A01 T01110023  RH  055%=      5-min Rain = 0
KWE3 081323Z 26007KT 11/02 A2988 RMK A01 T01120024  RH  055%=      5-min Rain = 0
KWE3 081324Z 26007KT 11/03 A2988 RMK A01 T01130025  RH  055%=      5-min Rain = 0
KWE3 081325Z 26008KT 11/03 A2988 RMK A01 T01130026  RH  055%=      5-min Rain = 0
KWE3 081326Z 26008KT 11/02 A2988 RMK A01 T01140024  RH  054%=      5-min Rain = 0
KWE3 081327Z 26008KT 12/02 A2988 RMK A01 T01150024  RH  054%=      5-min Rain = 0
KWE3 081328Z 26008KT 12/02 A2988 RMK A01 T01160024  RH  053%=      5-min Rain = 0
KWE3 081329Z 26008KT 12/02 A2988 RMK A01 T01170024  RH  053%=      5-min Rain = 0
KWE3 081330Z 26008KT 12/02 A2988 RMK A01 T01180023  RH  052%=      5-min Rain = 0
KWE3 081331Z 26008KT 12/02 A2988 RMK A01 T01180024  RH  052%=      5-min Rain = 0
KWE3 081332Z 26009KT 12/02 A2988 RMK A01 T01190024  RH  052%=      5-min Rain = 0
KWE3 081333Z 26008KT 12/02 A2988 RMK A01 T01200024  RH  052%=      5-min Rain = 0
KWE3 081334Z 26008KT 12/02 A2988 RMK A01 T01220024  RH  051%=      5-min Rain = 0
KWE3 081335Z 26009KT 12/02 A2988 RMK A01 T01230023  RH  050%=      5-min Rain = 0
KWE3 081336Z 26008KT 12/02 A2988 RMK A01 T01230022  RH  050%=      5-min Rain = 0
KWE3 081337Z 27008KT 12/02 A2988 RMK A01 T01240023  RH  050%=      5-min Rain = 0
KWE3 081338Z 26008KT 13/02 A2988 RMK A01 T01260024  RH  050%=      5-min Rain = 0
KWE3 081339Z 27009KT 13/02 A2988 RMK A01 T01280023  RH  049%=      5-min Rain = 0
KWE3 081340Z 26008KT 13/02 A2988 RMK A01 T01280022  RH  048%=      5-min Rain = 0
KWE3 081341Z 26007KT 13/02 A2988 RMK A01 T01290024  RH  049%=      5-min Rain = 0
KWE3 081342Z 26008KT 13/02 A2988 RMK A01 T01310024  RH  048%=      5-min Rain = 0
KWE3 081343Z 26009KT 13/02 A2988 RMK A01 T01320022  RH  047%=      5-min Rain = 0
KWE3 081344Z 26008KT 13/02 A2988 RMK A01 T01320024  RH  048%=      5-min Rain = 0
KWE3 081345Z 26009KT 13/02 A2988 RMK A01 T01330023  RH  047%=      5-min Rain = 0
KWE3 081346Z 26008KT 13/02 A2988 RMK A01 T01330023  RH  047%=      5-min Rain = 0
KWE3 081347Z 26007KT 13/02 A2988 RMK A01 T01340023  RH  047%=      5-min Rain = 0
KWE3 081348Z 26007KT 13/02 A2988 RMK A01 T01340024  RH  047%=      5-min Rain = 0
KWE3 081349Z 26009KT 14/02 A2988 RMK A01 T01350024  RH  047%=      5-min Rain = 0
KWE3 081350Z 26008KT 14/02 A2988 RMK A01 T01360023  RH  046%=      5-min Rain = 0
KWE3 081351Z 26009KT 14/02 A2988 RMK A01 T01360023  RH  046%=      5-min Rain = 0
KWE3 081352Z 26009KT 14/02 A2988 RMK A01 T01370023  RH  046%=      5-min Rain = 0
KWE3 081353Z 26009KT 14/02 A2988 RMK A01 T01370023  RH  046%=      5-min Rain = 0
KWE3 081354Z 26010KT 14/02 A2988 RMK A01 T01380023  RH  046%=      5-min Rain = 0
KWE3 081355Z 26009KT 14/02 A2988 RMK A01 T01390023  RH  045%=      5-min Rain = 0
KWE3 081356Z 26010KT 14/02 A2988 RMK A01 T01390022  RH  045%=      5-min Rain = 0
KWE3 081357Z 25008KT 14/02 A2988 RMK A01 T01390022  RH  045%=      5-min Rain = 0
KWE3 081358Z 26009KT 14/02 A2988 RMK A01 T01400023  RH  045%=      5-min Rain = 0
KWE3 081359Z 26010KT 14/02 A2988 RMK A01 T01410022  RH  045%=      5-min Rain = 0
KWE3 081400Z 26010KT 14/02 A2988 RMK A01 T01410022  RH  045%=      5-min Rain = 0
KWE3 081401Z 26009KT 14/02 A2988 RMK A01 T01410022  RH  044%=      5-min Rain = 0
KWE3 081402Z 26010KT 14/02 A2988 RMK A01 T01420022  RH  044%=      5-min Rain = 0
KWE3 081403Z 26010KT 14/02 A2988 RMK A01 T01420021  RH  044%=      5-min Rain = 0
KWE3 081404Z 26008KT 14/02 A2988 RMK A01 T01430024  RH  045%=      5-min Rain = 0
KWE3 081405Z 26011KT 14/02 A2988 RMK A01 T01440024  RH  044%=      5-min Rain = 0
KWE3 081406Z 26010KT 15/02 A2988 RMK A01 T01450023  RH  044%=      5-min Rain = 0
KWE3 081407Z 26009KT 15/02 A2988 RMK A01 T01450023  RH  044%=      5-min Rain = 0
KWE3 081408Z 26009KT 15/03 A2988 RMK A01 T01460025  RH  044%=      5-min Rain = 0
KWE3 081409Z 26010KT 15/02 A2988 RMK A01 T01470024  RH  043%=      5-min Rain = 0
KWE3 081410Z 25010G15KT 15/02 A2988 RMK A01 T01470024  RH  043%=      5-min Rain = 0
KWE3 081411Z 25012KT 15/02 A2988 RMK A01 T01470023  RH  043%=      5-min Rain = 0
KWE3 081412Z 25010KT 15/02 A2988 RMK A01 T01480024  RH  043%=      5-min Rain = 0
KWE3 081413Z 25010KT 15/03 A2988 RMK A01 T01480025  RH  043%=      5-min Rain = 0
KWE3 081414Z 25011KT 15/03 A2988 RMK A01 T01490027  RH  044%=      5-min Rain = 0
KWE3 081415Z 25009KT 15/03 A2988 RMK A01 T01500026  RH  043%=      5-min Rain = 0
KWE3 081416Z 25011KT 15/03 A2988 RMK A01 T01500027  RH  043%=      5-min Rain = 0
KWE3 081417Z 25009KT 15/03 A2988 RMK A01 T01500026  RH  043%=      5-min Rain = 0
KWE3 081418Z 25010KT 15/03 A2987 RMK A01 T01510027  RH  043%=      5-min Rain = 0
KWE3 081419Z 25009KT 15/03 A2987 RMK A01 T01510028  RH  044%=      5-min Rain = 0
KWE3 081420Z 25009KT 15/03 A2987 RMK A01 T01520029  RH  043%=      5-min Rain = 0
KWE3 081421Z 25009KT 15/03 A2987 RMK A01 T01540030  RH  044%=      5-min Rain = 0
KWE3 081422Z 26009KT 15/03 A2987 RMK A01 T01540029  RH  043%=      5-min Rain = 0
KWE3 081423Z 25010KT 15/03 A2987 RMK A01 T01540029  RH  043%=      5-min Rain = 0
KWE3 081424Z 25010KT 15/03 A2987 RMK A01 T01540029  RH  043%=      5-min Rain = 0
KWE3 081425Z 25010KT 15/03 A2987 RMK A01 T01540031  RH  043%=      5-min Rain = 0
KWE3 081426Z 25010KT 16/03 A2987 RMK A01 T01550029  RH  043%=      5-min Rain = 0
KWE3 081427Z 25009KT 16/03 A2987 RMK A01 T01560031  RH  043%=      5-min Rain = 0
KWE3 081428Z 25008KT 16/03 A2987 RMK A01 T01570033  RH  043%=      5-min Rain = 0
KWE3 081429Z 25010KT 16/03 A2987 RMK A01 T01590031  RH  042%=      5-min Rain = 0
KWE3 081430Z 25011KT 16/03 A2987 RMK A01 T01590031  RH  042%=      5-min Rain = 0
KWE3 081431Z 25011KT 16/03 A2987 RMK A01 T01600033  RH  042%=      5-min Rain = 0
KWE3 081432Z 24009KT 16/03 A2987 RMK A01 T01610032  RH  042%=      5-min Rain = 0
KWE3 081433Z 25009KT 16/03 A2987 RMK A01 T01620034  RH  042%=      5-min Rain = 0
KWE3 081434Z 24010KT 16/03 A2987 RMK A01 T01630034  RH  042%=      5-min Rain = 0
KWE3 081435Z 24010KT 16/03 A2987 RMK A01 T01640032  RH  041%=      5-min Rain = 0
KWE3 081436Z 25010KT 16/03 A2987 RMK A01 T01640034  RH  042%=      5-min Rain = 0
KWE3 081437Z 24011KT 17/03 A2987 RMK A01 T01650033  RH  041%=      5-min Rain = 0
KWE3 081438Z 24012KT 17/03 A2987 RMK A01 T01660032  RH  041%=      5-min Rain = 0
KWE3 081439Z 24010KT 17/03 A2987 RMK A01 T01660030  RH  040%=      5-min Rain = 0
KWE3 081440Z 24010KT 17/03 A2987 RMK A01 T01660031  RH  040%=      5-min Rain = 0
KWE3 081441Z 24009KT 17/03 A2987 RMK A01 T01680032  RH  040%=      5-min Rain = 0
KWE3 081442Z 23011KT 17/03 A2987 RMK A01 T01700033  RH  040%=      5-min Rain = 0
KWE3 081443Z 23010KT 17/03 A2987 RMK A01 T01710031  RH  039%=      5-min Rain = 0
KWE3 081444Z 24012KT 17/03 A2987 RMK A01 T01710032  RH  039%=      5-min Rain = 0
KWE3 081445Z 24011KT 17/03 A2987 RMK A01 T01720029  RH  038%=      5-min Rain = 0
KWE3 081446Z 24012KT 17/03 A2987 RMK A01 T01720030  RH  039%=      5-min Rain = 0
KWE3 081447Z 24009KT 17/03 A2987 RMK A01 T01720030  RH  039%=      5-min Rain = 0
KWE3 081448Z 23010KT 17/03 A2987 RMK A01 T01730033  RH  039%=      5-min Rain = 0
KWE3 081449Z 23011KT 17/03 A2987 RMK A01 T01740031  RH  038%=      5-min Rain = 0
KWE3 081450Z 24009KT 17/03 A2987 RMK A01 T01740032  RH  039%=      5-min Rain = 0
KWE3 081451Z 24009KT 18/03 A2987 RMK A01 T01750032  RH  039%=      5-min Rain = 0
KWE3 081452Z 23010KT 18/04 A2987 RMK A01 T01760035  RH  039%=      5-min Rain = 0
KWE3 081453Z 24010KT 18/03 A2987 RMK A01 T01770034  RH  039%=      5-min Rain = 0
KWE3 081454Z 25011KT 18/03 A2987 RMK A01 T01780033  RH  038%=      5-min Rain = 0
KWE3 081455Z 24012KT 18/03 A2987 RMK A01 T01780029  RH  037%=      5-min Rain = 0
KWE3 081456Z 25011KT 18/03 A2987 RMK A01 T01750028  RH  037%=      5-min Rain = 0
KWE3 081457Z 23010KT 18/03 A2987 RMK A01 T01770034  RH  039%=      5-min Rain = 0
KWE3 081458Z 23011KT 18/03 A2987 RMK A01 T01790034  RH  038%=      5-min Rain = 0
KWE3 081459Z 23012KT 18/03 A2987 RMK A01 T01790031  RH  037%=      5-min Rain = 0
KWE3 081500Z 23013KT 18/03 A2987 RMK A01 T01780029  RH  037%=      5-min Rain = 0
KWE3 081501Z 23012KT 18/03 A2987 RMK A01 T01770029  RH  037%=      5-min Rain = 0
KWE3 081502Z 23012KT 18/03 A2987 RMK A01 T01760029  RH  037%=      5-min Rain = 0
KWE3 081503Z 23010KT 18/03 A2987 RMK A01 T01760029  RH  037%=      5-min Rain = 0
KWE3 081504Z 23011KT 18/03 A2987 RMK A01 T01770032  RH  038%=      5-min Rain = 0
KWE3 081505Z 23013KT 18/03 A2987 RMK A01 T01780030  RH  037%=      5-min Rain = 0
KWE3 081506Z 23011KT 18/03 A2987 RMK A01 T01790032  RH  038%=      5-min Rain = 0
KWE3 081507Z 23011KT 18/03 A2987 RMK A01 T01810030  RH  037%=      5-min Rain = 0
KWE3 081508Z 23013KT 18/03 A2987 RMK A01 T01800029  RH  036%=      5-min Rain = 0
KWE3 081509Z 23012KT 18/03 A2987 RMK A01 T01800029  RH  037%=      5-min Rain = 0
KWE3 081510Z 23012KT 18/03 A2987 RMK A01 T01790031  RH  037%=      5-min Rain = 0
KWE3 081511Z 23012KT 18/03 A2987 RMK A01 T01800029  RH  037%=      5-min Rain = 0
KWE3 081512Z 23012KT 18/03 A2987 RMK A01 T01800029  RH  037%=      5-min Rain = 0
KWE3 081513Z 23012KT 18/03 A2987 RMK A01 T01800029  RH  036%=      5-min Rain = 0
KWE3 081514Z 24011KT 18/03 A2987 RMK A01 T01810030  RH  037%=      5-min Rain = 0
KWE3 081515Z 24012KT 18/03 A2987 RMK A01 T01820030  RH  036%=      5-min Rain = 0
KWE3 081516Z 24011KT 18/03 A2987 RMK A01 T01830030  RH  036%=      5-min Rain = 0
KWE3 081517Z 24012KT 18/03 A2987 RMK A01 T01830028  RH  036%=      5-min Rain = 0
KWE3 081518Z 24010KT 18/03 A2987 RMK A01 T01840032  RH  036%=      5-min Rain = 0
KWE3 081519Z 23011KT 19/03 A2987 RMK A01 T01850034  RH  037%=      5-min Rain = 0
KWE3 081520Z 22010KT 19/04 A2987 RMK A01 T01860036  RH  037%=      5-min Rain = 0
KWE3 081521Z 23011KT 19/03 A2987 RMK A01 T01880034  RH  036%=      5-min Rain = 0
KWE3 081522Z 24012KT 19/03 A2987 RMK A01 T01880030  RH  035%=      5-min Rain = 0
KWE3 081523Z 23011KT 19/03 A2987 RMK A01 T01870029  RH  035%=      5-min Rain = 0
KWE3 081524Z 23013KT 19/03 A2987 RMK A01 T01860030  RH  035%=      5-min Rain = 0
KWE3 081525Z 23012KT 19/03 A2987 RMK A01 T01860027  RH  034%=      5-min Rain = 0
KWE3 081526Z 24012KT 19/03 A2987 RMK A01 T01850025  RH  034%=      5-min Rain = 0
KWE3 081527Z 24010KT 19/03 A2987 RMK A01 T01850028  RH  035%=      5-min Rain = 0
KWE3 081528Z 23010KT 19/03 A2987 RMK A01 T01870031  RH  035%=      5-min Rain = 0
KWE3 081529Z 23011KT 19/03 A2987 RMK A01 T01890032  RH  035%=      5-min Rain = 0
KWE3 081530Z 23012KT 19/03 A2987 RMK A01 T01910029  RH  034%=      5-min Rain = 0
KWE3 081531Z 23011KT 19/03 A2987 RMK A01 T01900029  RH  034%=      5-min Rain = 0
KWE3 081532Z 22012KT 19/03 A2987 RMK A01 T01900028  RH  034%=      5-min Rain = 0
KWE3 081533Z 23011KT 19/03 A2987 RMK A01 T01920028  RH  034%=      5-min Rain = 0
KWE3 081534Z 23012KT 19/02 A2987 RMK A01 T01920023  RH  032%=      5-min Rain = 0
KWE3 081535Z 23012KT 19/02 A2987 RMK A01 T01910024  RH  033%=      5-min Rain = 0
KWE3 081536Z 23013KT 19/03 A2987 RMK A01 T01910026  RH  033%=      5-min Rain = 0
KWE3 081537Z 24012KT 19/03 A2987 RMK A01 T01920026  RH  033%=      5-min Rain = 0
KWE3 081538Z 24012KT 19/02 A2987 RMK A01 T01930024  RH  033%=      5-min Rain = 0
KWE3 081539Z 22011G16KT 19/03 A2987 RMK A01 T01930028  RH  034%=      5-min Rain = 0
KWE3 081540Z 23013KT 20/02 A2987 RMK A01 T01950024  RH  032%=      5-min Rain = 0
KWE3 081541Z 23012KT 20/02 A2987 RMK A01 T01950022  RH  032%=      5-min Rain = 0
KWE3 081542Z 23010KT 19/02 A2987 RMK A01 T01940024  RH  032%=      5-min Rain = 0
KWE3 081543Z 22011KT 19/02 A2987 RMK A01 T01940024  RH  032%=      5-min Rain = 0
KWE3 081544Z 23011KT 20/02 A2987 RMK A01 T01950024  RH  032%=      5-min Rain = 0
KWE3 081545Z 23011KT 20/02 A2987 RMK A01 T01960023  RH  032%=      5-min Rain = 0
KWE3 081546Z 23012KT 20/03 A2987 RMK A01 T01970025  RH  032%=      5-min Rain = 0
KWE3 081547Z 24013KT 20/02 A2987 RMK A01 T01990021  RH  031%=      5-min Rain = 0
KWE3 081548Z 24011KT 20/02 A2987 RMK A01 T01990020  RH  030%=      5-min Rain = 0
KWE3 081549Z 24012KT 20/02 A2987 RMK A01 T01970018  RH  030%=      5-min Rain = 0
KWE3 081550Z 23011KT 20/02 A2987 RMK A01 T01970022  RH  031%=      5-min Rain = 0
KWE3 081551Z 24010KT 20/03 A2987 RMK A01 T01970025  RH  032%=      5-min Rain = 0
KWE3 081552Z 25010KT 20/03 A2987 RMK A01 T01980026  RH  032%=      5-min Rain = 0
KWE3 081553Z 25010KT 20/03 A2987 RMK A01 T01990025  RH  031%=      5-min Rain = 0
KWE3 081554Z 23010KT 20/03 A2987 RMK A01 T02020026  RH  031%=      5-min Rain = 0
KWE3 081555Z 23012KT 20/03 A2987 RMK A01 T02030026  RH  031%=      5-min Rain = 0
KWE3 081556Z 23011KT 20/03 A2987 RMK A01 T02030028  RH  031%=      5-min Rain = 0
KWE3 081557Z 23010KT 20/03 A2987 RMK A01 T02030030  RH  032%=      5-min Rain = 0
KWE3 081558Z 22012KT 20/03 A2987 RMK A01 T02030028  RH  031%=      5-min Rain = 0
KWE3 081559Z 22011KT 20/03 A2987 RMK A01 T02040026  RH  031%=      5-min Rain = 0
KWE3 081600Z 23012KT 21/03 A2987 RMK A01 T02050026  RH  031%=      5-min Rain = 0
KWE3 081601Z 23010KT 21/03 A2987 RMK A01 T02050026  RH  031%=      5-min Rain = 0
KWE3 081602Z 24011KT 21/02 A2987 RMK A01 T02050023  RH  030%=      5-min Rain = 0
KWE3 081603Z 24012KT 20/02 A2987 RMK A01 T02040022  RH  030%=      5-min Rain = 0
KWE3 081604Z 23012KT 20/02 A2987 RMK A01 T02030021  RH  030%=      5-min Rain = 0
KWE3 081605Z 22010KT 20/02 A2986 RMK A01 T02020022  RH  030%=      5-min Rain = 0
KWE3 081606Z 23009KT 20/02 A2986 RMK A01 T02040024  RH  030%=      5-min Rain = 0
KWE3 081607Z 23011KT 21/02 A2986 RMK A01 T02070024  RH  030%=      5-min Rain = 0
KWE3 081608Z 23011KT 21/02 A2986 RMK A01 T02080021  RH  029%=      5-min Rain = 0
KWE3 081609Z 23010KT 21/02 A2986 RMK A01 T02070023  RH  030%=      5-min Rain = 0
KWE3 081610Z 23007KT 21/02 A2986 RMK A01 T02070024  RH  030%=      5-min Rain = 0
KWE3 081611Z 24010KT 21/03 A2986 RMK A01 T02070028  RH  031%=      5-min Rain = 0
KWE3 081612Z 24009KT 21/02 A2986 RMK A01 T02070024  RH  030%=      5-min Rain = 0
KWE3 081613Z 24010KT 21/03 A2986 RMK A01 T02070026  RH  030%=      5-min Rain = 0
KWE3 081614Z 24011KT 21/02 A2986 RMK A01 T02090023  RH  029%=      5-min Rain = 0
KWE3 081615Z 24010KT 21/02 A2986 RMK A01 T02090019  RH  028%=      5-min Rain = 0
KWE3 081616Z 23009KT 21/03 A2986 RMK A01 T02080026  RH  030%=      5-min Rain = 0
KWE3 081617Z 23010KT 21/03 A2986 RMK A01 T02110026  RH  030%=      5-min Rain = 0
KWE3 081618Z 23011KT 21/02 A2986 RMK A01 T02120022  RH  029%=      5-min Rain = 0
KWE3 081619Z 22009KT 21/02 A2986 RMK A01 T02100021  RH  028%=      5-min Rain = 0
KWE3 081620Z 24010KT 21/02 A2986 RMK A01 T02100024  RH  029%=      5-min Rain = 0
KWE3 081621Z 23010KT 21/02 A2986 RMK A01 T02110020  RH  028%=      5-min Rain = 0
KWE3 081622Z 23011KT 21/02 A2986 RMK A01 T02110021  RH  028%=      5-min Rain = 0
KWE3 081623Z 23011KT 21/02 A2986 RMK A01 T02100023  RH  029%=      5-min Rain = 0
KWE3 081624Z 24010G15KT 21/02 A2986 RMK A01 T02100024  RH  029%=      5-min Rain = 0
KWE3 081625Z 23010KT 21/03 A2986 RMK A01 T02120026  RH  029%=      5-min Rain = 0
KWE3 081626Z 22009KT 21/02 A2986 RMK A01 T02140024  RH  029%=      5-min Rain = 0
KWE3 081627Z 24009KT 21/03 A2986 RMK A01 T02140028  RH  029%=      5-min Rain = 0
KWE3 081628Z 25009KT 22/03 A2986 RMK A01 T02160030  RH  029%=      5-min Rain = 0
KWE3 081629Z 25008KT 22/03 A2986 RMK A01 T02180026  RH  028%=      5-min Rain = 0
KWE3 081630Z 23009KT 22/03 A2986 RMK A01 T02180031  RH  029%=      5-min Rain = 0
KWE3 081631Z 22012KT 22/03 A2985 RMK A01 T02200026  RH  028%=      5-min Rain = 0
KWE3 081632Z 23011KT 22/02 A2985 RMK A01 T02190023  RH  027%=      5-min Rain = 0
KWE3 081633Z 22011KT 22/02 A2985 RMK A01 T02160021  RH  028%=      5-min Rain = 0
KWE3 081634Z 23014KT 22/02 A2985 RMK A01 T02150023  RH  028%=      5-min Rain = 0
KWE3 081635Z 23012KT 21/02 A2985 RMK A01 T02140023  RH  028%=      5-min Rain = 0
KWE3 081636Z 23010KT 21/02 A2985 RMK A01 T02130023  RH  028%=      5-min Rain = 0
KWE3 081637Z 22010G15KT 21/02 A2985 RMK A01 T02130024  RH  029%=      5-min Rain = 0
KWE3 081638Z 22013KT 22/02 A2985 RMK A01 T02150024  RH  028%=      5-min Rain = 0
KWE3 081639Z 22012KT 22/02 A2985 RMK A01 T02170023  RH  028%=      5-min Rain = 0
KWE3 081640Z 22012KT 22/02 A2985 RMK A01 T02170020  RH  027%=      5-min Rain = 0
KWE3 081641Z 22011KT 22/02 A2985 RMK A01 T02160018  RH  027%=      5-min Rain = 0
KWE3 081642Z 22011KT 22/02 A2985 RMK A01 T02160021  RH  028%=      5-min Rain = 0
KWE3 081643Z 22011KT 22/02 A2985 RMK A01 T02160021  RH  028%=      5-min Rain = 0
KWE3 081644Z 22011KT 22/02 A2985 RMK A01 T02170024  RH  028%=      5-min Rain = 0
KWE3 081645Z 22010KT 22/02 A2985 RMK A01 T02170023  RH  028%=      5-min Rain = 0
KWE3 081646Z 21008KT 22/02 A2985 RMK A01 T02180024  RH  028%=      5-min Rain = 0
KWE3 081647Z 24011G16KT 22/03 A2985 RMK A01 T02200028  RH  028%=      5-min Rain = 0
KWE3 081648Z 22010KT 22/02 A2985 RMK A01 T02220023  RH  027%=      5-min Rain = 0
KWE3 081649Z 23010KT 22/02 A2985 RMK A01 T02210022  RH  027%=      5-min Rain = 0
KWE3 081650Z 22009KT 22/02 A2985 RMK A01 T02210024  RH  027%=      5-min Rain = 0
KWE3 081651Z 24010KT 22/02 A2985 RMK A01 T02200024  RH  027%=      5-min Rain = 0
KWE3 081652Z 23011KT 22/03 A2984 RMK A01 T02200026  RH  028%=      5-min Rain = 0
KWE3 081653Z 23011KT 22/02 A2984 RMK A01 T02220021  RH  027%=      5-min Rain = 0
KWE3 081654Z 24010KT 22/02 A2984 RMK A01 T02220024  RH  027%=      5-min Rain = 0
KWE3 081655Z 24010KT 22/02 A2984 RMK A01 T02230022  RH  027%=      5-min Rain = 0
KWE3 081656Z 23009KT 22/02 A2984 RMK A01 T02230023  RH  027%=      5-min Rain = 0
KWE3 081657Z 22009KT 22/02 A2984 RMK A01 T02240023  RH  027%=      5-min Rain = 0
KWE3 081658Z 21008KT 22/02 A2984 RMK A01 T02230023  RH  027%=      5-min Rain = 0
KWE3 081659Z 23008G14KT 22/03 A2984 RMK A01 T02240026  RH  027%=      5-min Rain = 0
KWE3 081700Z 24010KT 23/02 A2984 RMK A01 T02260022  RH  026%=      5-min Rain = 0
KWE3 081701Z 23012KT 23/02 A2984 RMK A01 T02260022  RH  026%=      5-min Rain = 0
KWE3 081702Z 23011KT 23/02 A2984 RMK A01 T02260019  RH  026%=      5-min Rain = 0
KWE3 081703Z 23009KT 23/02 A2984 RMK A01 T02250019  RH  026%=      5-min Rain = 0
KWE3 081704Z 23010KT 23/02 A2984 RMK A01 T02250022  RH  026%=      5-min Rain = 0
KWE3 081705Z 23011KT 23/01 A2984 RMK A01 T02250014  RH  025%=      5-min Rain = 0
KWE3 081706Z 22009KT 23/02 A2984 RMK A01 T02250020  RH  026%=      5-min Rain = 0
KWE3 081707Z 23010KT 23/02 A2984 RMK A01 T02270023  RH  026%=      5-min Rain = 0
KWE3 081708Z 24009KT 23/02 A2984 RMK A01 T02280019  RH  025%=      5-min Rain = 0
KWE3 081709Z 23009KT 23/02 A2984 RMK A01 T02280018  RH  025%=      5-min Rain = 0
KWE3 081710Z 21011KT 23/02 A2984 RMK A01 T02280017  RH  025%=      5-min Rain = 0
KWE3 081711Z 22009KT 23/02 A2984 RMK A01 T02280019  RH  025%=      5-min Rain = 0
KWE3 081712Z 23011KT 23/02 A2984 RMK A01 T02320019  RH  025%=      5-min Rain = 0
KWE3 081713Z 22009KT 23/02 A2983 RMK A01 T02310015  RH  024%=      5-min Rain = 0
KWE3 081714Z 22007KT 23/02 A2983 RMK A01 T02290017  RH  025%=      5-min Rain = 0
KWE3 081715Z 22009G14KT 23/02 A2983 RMK A01 T02290020  RH  025%=      5-min Rain = 0
KWE3 081716Z 23010KT 23/02 A2983 RMK A01 T02310021  RH  025%=      5-min Rain = 0
KWE3 081717Z 21008KT 23/02 A2983 RMK A01 T02320022  RH  025%=      5-min Rain = 0
KWE3 081718Z 22010KT 23/02 A2983 RMK A01 T02330022  RH  025%=      5-min Rain = 0
KWE3 081719Z 21008KT 23/02 A2983 RMK A01 T02340020  RH  025%=      5-min Rain = 0
KWE3 081720Z 22012KT 24/03 A2983 RMK A01 T02370026  RH  025%=      5-min Rain = 0
KWE3 081721Z 21010KT 24/02 A2983 RMK A01 T02390021  RH  024%=      5-min Rain = 0
KWE3 081722Z 22010KT 24/02 A2983 RMK A01 T02390019  RH  024%=      5-min Rain = 0
KWE3 081723Z 22008KT 24/02 A2983 RMK A01 T02360017  RH  024%=      5-min Rain = 0
KWE3 081724Z 22009KT 24/02 A2983 RMK A01 T02350022  RH  025%=      5-min Rain = 0
KWE3 081725Z 23008KT 24/02 A2983 RMK A01 T02380021  RH  024%=      5-min Rain = 0
KWE3 081726Z 22008KT 24/02 A2983 RMK A01 T02390024  RH  024%=      5-min Rain = 0
KWE3 081727Z 21009KT 24/02 A2983 RMK A01 T02380017  RH  023%=      5-min Rain = 0
KWE3 081728Z 22009KT 24/02 A2983 RMK A01 T02360020  RH  024%=      5-min Rain = 0
KWE3 081729Z 21008KT 24/02 A2983 RMK A01 T02370023  RH  024%=      5-min Rain = 0
KWE3 081730Z 20006KT 24/02 A2983 RMK A01 T02390023  RH  024%=      5-min Rain = 0
KWE3 081731Z 23010KT 24/03 A2982 RMK A01 T02420026  RH  024%=      5-min Rain = 0
KWE3 081732Z 24010KT 24/02 A2982 RMK A01 T02410016  RH  023%=      5-min Rain = 0
KWE3 081733Z 24007KT 24/02 A2982 RMK A01 T02370019  RH  024%=      5-min Rain = 0
KWE3 081734Z 24006KT 24/02 A2982 RMK A01 T02370022  RH  024%=      5-min Rain = 0
KWE3 081735Z 22012G17KT 24/02 A2982 RMK A01 T02400020  RH  024%=      5-min Rain = 0
KWE3 081736Z 22011KT 24/01 A2982 RMK A01 T02430008  RH  021%=      5-min Rain = 0
KWE3 081737Z 22010KT 24/01 A2982 RMK A01 T02410005  RH  021%=      5-min Rain = 0
KWE3 081738Z 20009KT 24/02 A2982 RMK A01 T02390016  RH  023%=      5-min Rain = 0
KWE3 081739Z 20007G12KT 24/01 A2982 RMK A01 T02410010  RH  022%=      5-min Rain = 0
KWE3 081740Z 23010KT 24/01 A2982 RMK A01 T02390013  RH  023%=      5-min Rain = 0
KWE3 081741Z 24012KT 24/01 A2982 RMK A01 T02390013  RH  023%=      5-min Rain = 0
KWE3 081742Z 23008KT 24/01 A2982 RMK A01 T02380013  RH  023%=      5-min Rain = 0
KWE3 081743Z 23008KT 24/01 A2982 RMK A01 T02380006  RH  022%=      5-min Rain = 0
KWE3 081744Z 23007KT 24/01 A2982 RMK A01 T02380013  RH  023%=      5-min Rain = 0
KWE3 081745Z 23007KT 24/02 A2982 RMK A01 T02430018  RH  023%=      5-min Rain = 0
KWE3 081746Z 24006KT 24/01 A2982 RMK A01 T02440007  RH  021%=      5-min Rain = 0
KWE3 081747Z 22007KT 24/02 A2982 RMK A01 T02430015  RH  022%=      5-min Rain = 0
KWE3 081748Z 19012KT 24/01 A2982 RMK A01 T02430013  RH  022%=      5-min Rain = 0
KWE3 081749Z 22011KT 24/01 A2982 RMK A01 T02440011  RH  022%=      5-min Rain = 0
KWE3 081750Z 23008KT 25/01 A2982 RMK A01 T02450014  RH  022%=      5-min Rain = 0
KWE3 081751Z 24007KT 24/00 A2982 RMK A01 T02440003  RH  020%=      5-min Rain = 0
KWE3 081752Z 25006KT 24/01 A2982 RMK A01 T02420008  RH  022%=      5-min Rain = 0
KWE3 081753Z 25007KT 24/01 A2982 RMK A01 T02440006  RH  021%=      5-min Rain = 0
KWE3 081754Z 23008KT 24/01 A2982 RMK A01 T02430009  RH  021%=      5-min Rain = 0
KWE3 081755Z 22010KT 24/00 A2982 RMK A01 T024400-0  RH  020%=      5-min Rain = 0
KWE3 081756Z 23008KT 24/00 A2982 RMK A01 T02430001  RH  020%=      5-min Rain = 0
KWE3 081757Z 24009KT 25/M01 A2982 RMK A01 T02451007  RH  019%=      5-min Rain = 0
KWE3 081758Z 22013G19KT 25/00 A2981 RMK A01 T024600-0  RH  020%=      5-min Rain = 0
KWE3 081759Z 21012KT 25/M00 A2982 RMK A01 T02471001  RH  020%=      5-min Rain = 0
KWE3 081800Z 24011KT 25/M00 A2982 RMK A01 T02451002  RH  020%=      5-min Rain = 0
KWE3 081801Z 23008KT 24/00 A2982 RMK A01 T024300-0  RH  020%=      5-min Rain = 0
KWE3 081802Z 24010KT 24/M00 A2982 RMK A01 T02431002  RH  020%=      5-min Rain = 0
KWE3 081803Z 26007KT 24/M01 A2982 RMK A01 T02421007  RH  019%=      5-min Rain = 0
KWE3 081804Z 23009KT 24/M01 A2982 RMK A01 T02411006  RH  020%=      5-min Rain = 0
KWE3 081805Z 22009KT 24/M01 A2982 RMK A01 T02431010  RH  019%=      5-min Rain = 0
KWE3 081806Z 23009KT 25/M02 A2982 RMK A01 T02461016  RH  018%=      5-min Rain = 0
KWE3 081807Z 22007KT 25/M02 A2981 RMK A01 T02451020  RH  017%=      5-min Rain = 0
KWE3 081808Z 21006KT 24/M01 A2981 RMK A01 T02431014  RH  018%=      5-min Rain = 0
KWE3 081809Z 21008KT 24/M01 A2981 RMK A01 T02441006  RH  019%=      5-min Rain = 0
KWE3 081810Z 20011KT 25/00 A2981 RMK A01 T02480004  RH  020%=      5-min Rain = 0
KWE3 081811Z 19009KT 25/M00 A2981 RMK A01 T02501004  RH  019%=      5-min Rain = 0
KWE3 081812Z 18007KT 25/M01 A2981 RMK A01 T02481007  RH  019%=      5-min Rain = 0
KWE3 081813Z 19008KT 25/00 A2981 RMK A01 T02490000  RH  019%=      5-min Rain = 0
KWE3 081814Z 21011KT 25/01 A2981 RMK A01 T02510005  RH  020%=      5-min Rain = 0
KWE3 081815Z 23010KT 25/M00 A2981 RMK A01 T02541003  RH  018%=      5-min Rain = 0
KWE3 081816Z 23008KT 25/M02 A2981 RMK A01 T02491015  RH  017%=      5-min Rain = 0
KWE3 081817Z 22011G17KT 25/M01 A2981 RMK A01 T02451008  RH  019%=      5-min Rain = 0
KWE3 081818Z 22009KT 25/M01 A2981 RMK A01 T02461010  RH  018%=      5-min Rain = 0
KWE3 081819Z 21011G17KT 25/00 A2981 RMK A01 T024700-0  RH  020%=      5-min Rain = 0
KWE3 081820Z 20014KT 25/M00 A2981 RMK A01 T02511001  RH  019%=      5-min Rain = 0
KWE3 081821Z 20009KT 25/M01 A2981 RMK A01 T02491005  RH  019%=      5-min Rain = 0
KWE3 081822Z 20005KT 25/M01 A2981 RMK A01 T02471011  RH  018%=      5-min Rain = 0
KWE3 081823Z 22007KT 25/M00 A2981 RMK A01 T02461003  RH  019%=      5-min Rain = 0
KWE3 081824Z 21007KT 25/00 A298 RMK A01 T024700-0  RH  020%=      5-min Rain = 0
KWE3 081825Z 22011G16KT 25/M00 A298 RMK A01 T02481004  RH  019%=      5-min Rain = 0
KWE3 081826Z 24010KT 25/M01 A298 RMK A01 T02481007  RH  019%=      5-min Rain = 0
KWE3 081827Z 24009KT 25/M01 A298 RMK A01 T02471012  RH  018%=      5-min Rain = 0
KWE3 081828Z 20009KT 24/M01 A298 RMK A01 T02441009  RH  019%=      5-min Rain = 0
KWE3 081829Z 20006KT 25/M00 A298 RMK A01 T02461004  RH  019%=      5-min Rain = 0
KWE3 081830Z 20006KT 25/M01 A298 RMK A01 T02491007  RH  018%=      5-min Rain = 0
KWE3 081831Z 23008G13KT 25/M00 A298 RMK A01 T02491003  RH  019%=      5-min Rain = 0
KWE3 081832Z 20011KT 25/00 A298 RMK A01 T02520004  RH  020%=      5-min Rain = 0
KWE3 081833Z 23013KT 26/M00 A298 RMK A01 T02561003  RH  018%=      5-min Rain = 0
KWE3 081834Z 23010KT 25/M01 A298 RMK A01 T02531009  RH  018%=      5-min Rain = 0
KWE3 081835Z 23011G16KT 25/M01 A298 RMK A01 T02521007  RH  018%=      5-min Rain = 0
KWE3 081836Z 22011G16KT 25/M00 A298 RMK A01 T02521003  RH  019%=      5-min Rain = 0
KWE3 081837Z 23012KT 25/M01 A298 RMK A01 T02521009  RH  018%=      5-min Rain = 0
KWE3 081838Z 23010KT 25/M01 A298 RMK A01 T02511013  RH  017%=      5-min Rain = 0
KWE3 081839Z 24009KT 25/M02 A298 RMK A01 T02461017  RH  017%=      5-min Rain = 0
KWE3 081840Z 24008KT 25/M00 A298 RMK A01 T02451004  RH  019%=      5-min Rain = 0
KWE3 081841Z 24009KT 25/M01 A298 RMK A01 T02461012  RH  018%=      5-min Rain = 0
KWE3 081842Z 24008KT 25/M00 A298 RMK A01 T02461004  RH  019%=      5-min Rain = 0
KWE3 081843Z 24011KT 25/M00 A298 RMK A01 T02491001  RH  019%=      5-min Rain = 0
KWE3 081844Z 23010G15KT 25/M00 A2979 RMK A01 T02491003  RH  019%=      5-min Rain = 0
KWE3 081845Z 22008G13KT 25/01 A2979 RMK A01 T02520007  RH  020%=      5-min Rain = 0
KWE3 081846Z 23008KT 26/M01 A2979 RMK A01 T02551007  RH  018%=      5-min Rain = 0
KWE3 081847Z 21012G17KT 25/M00 A2979 RMK A01 T02511004  RH  019%=      5-min Rain = 0
KWE3 081848Z 22013G18KT 25/M01 A2979 RMK A01 T02521005  RH  018%=      5-min Rain = 0
KWE3 081849Z 22013KT 25/M01 A2979 RMK A01 T02521009  RH  018%=      5-min Rain = 0
KWE3 081850Z 22012G17KT 25/M01 A2979 RMK A01 T02511006  RH  018%=      5-min Rain = 0
KWE3 081851Z 22005G10KT 25/M01 A2979 RMK A01 T02521008  RH  018%=      5-min Rain = 0
KWE3 081852Z 24010KT 25/M00 A2979 RMK A01 T02521001  RH  019%=      5-min Rain = 0
KWE3 081853Z 24011KT 25/M01 A2979 RMK A01 T02531007  RH  018%=      5-min Rain = 0
KWE3 081854Z 22010KT 25/M01 A2979 RMK A01 T02521008  RH  018%=      5-min Rain = 0
KWE3 081855Z 22009KT 25/M00 A2979 RMK A01 T02531004  RH  018%=      5-min Rain = 0
KWE3 081856Z 21011KT 25/M01 A2979 RMK A01 T02531010  RH  018%=      5-min Rain = 0
KWE3 081857Z 20009KT 25/M01 A2979 RMK A01 T02521012  RH  018%=      5-min Rain = 0
KWE3 081858Z 25011KT 25/00 A2979 RMK A01 T02530003  RH  019%=      5-min Rain = 0
KWE3 081859Z 25011KT 26/M01 A2979 RMK A01 T02551006  RH  018%=      5-min Rain = 0
KWE3 081900Z 25012G17KT 26/M01 A2978 RMK A01 T02551006  RH  018%=      5-min Rain = 0
KWE3 081901Z 26010KT 25/M01 A2979 RMK A01 T02521008  RH  018%=      5-min Rain = 0
KWE3 081902Z 25010KT 25/00 A2978 RMK A01 T02520001  RH  019%=      5-min Rain = 0
KWE3 081903Z 24010KT 26/00 A2978 RMK A01 T02570001  RH  019%=      5-min Rain = 0
KWE3 081904Z 25009KT 26/M01 A2978 RMK A01 T02561006  RH  018%=      5-min Rain = 0
KWE3 081905Z 25007KT 25/M01 A2978 RMK A01 T02521010  RH  018%=      5-min Rain = 0
KWE3 081906Z 24008KT 25/M00 A2978 RMK A01 T02511002  RH  019%=      5-min Rain = 0
KWE3 081907Z 22007KT 25/00 A2978 RMK A01 T02520003  RH  019%=      5-min Rain = 0
KWE3 081908Z 20007KT 26/00 A2978 RMK A01 T02550004  RH  019%=      5-min Rain = 0
KWE3 081909Z 22009G14KT 26/01 A2978 RMK A01 T02590011  RH  020%=      5-min Rain = 0
KWE3 081910Z 24013G20KT 26/01 A2978 RMK A01 T02620006  RH  019%=      5-min Rain = 0
KWE3 081911Z 24011G17KT 26/M01 A2978 RMK A01 T02591005  RH  018%=      5-min Rain = 0
KWE3 081912Z 20015KT 26/00 A2978 RMK A01 T02570004  RH  019%=      5-min Rain = 0
KWE3 081913Z 19012KT 26/M00 A2978 RMK A01 T02581001  RH  018%=      5-min Rain = 0
KWE3 081914Z 18010KT 26/00 A2978 RMK A01 T02570000  RH  019%=      5-min Rain = 0
KWE3 081915Z 18012KT 26/M00 A2978 RMK A01 T02581004  RH  018%=      5-min Rain = 0
KWE3 081916Z 19008KT 26/M01 A2978 RMK A01 T02551013  RH  017%=      5-min Rain = 0
KWE3 081917Z 20007KT 25/M01 A2978 RMK A01 T02531006  RH  018%=      5-min Rain = 0
KWE3 081918Z 20009KT 25/M01 A2978 RMK A01 T02531007  RH  018%=      5-min Rain = 0
KWE3 081919Z 19009KT 25/00 A2978 RMK A01 T02530002  RH  019%=      5-min Rain = 0
KWE3 081920Z 20012KT 26/M00 A2978 RMK A01 T02561002  RH  018%=      5-min Rain = 0
KWE3 081921Z 22010KT 26/M01 A2978 RMK A01 T02571008  RH  017%=      5-min Rain = 0
KWE3 081922Z 23011KT 26/M00 A2978 RMK A01 T02561002  RH  018%=      5-min Rain = 0
KWE3 081923Z 23009KT 26/M01 A2977 RMK A01 T02571008  RH  018%=      5-min Rain = 0
KWE3 081924Z 19009G14KT 26/M00 A2977 RMK A01 T02571002  RH  018%=      5-min Rain = 0
KWE3 081925Z 20012KT 26/M00 A2977 RMK A01 T02581001  RH  018%=      5-min Rain = 0
KWE3 081926Z 20016KT 26/00 A2977 RMK A01 T02600000  RH  018%=      5-min Rain = 0
KWE3 081927Z 20012KT 26/M00 A2977 RMK A01 T02601003  RH  018%=      5-min Rain = 0
KWE3 081928Z 20010KT 26/M01 A2977 RMK A01 T02581008  RH  017%=      5-min Rain = 0
KWE3 081929Z 19008KT 26/M01 A2977 RMK A01 T02561010  RH  017%=      5-min Rain = 0
KWE3 081930Z 19008KT 26/M01 A2977 RMK A01 T02551006  RH  018%=      5-min Rain = 0
KWE3 081931Z 20007KT 26/M01 A2977 RMK A01 T02561006  RH  018%=      5-min Rain = 0
KWE3 081932Z 21008KT 26/M00 A2977 RMK A01 T02561004  RH  018%=      5-min Rain = 0
KWE3 081933Z 23004KT 26/M01 A2977 RMK A01 T02571010  RH  017%=      5-min Rain = 0
KWE3 081934Z 20008G14KT 26/M01 A2977 RMK A01 T02551005  RH  018%=      5-min Rain = 0
KWE3 081935Z 20014G19KT 26/00 A2977 RMK A01 T02560001  RH  019%=      5-min Rain = 0
KWE3 081936Z 20013KT 26/00 A2977 RMK A01 T02590002  RH  019%=      5-min Rain = 0
KWE3 081937Z 19010KT 26/M01 A2977 RMK A01 T02591006  RH  018%=      5-min Rain = 0
KWE3 081938Z 19006KT 26/M01 A2977 RMK A01 T02571006  RH  018%=      5-min Rain = 0
KWE3 081939Z 19010G16KT 26/M00 A2977 RMK A01 T02571001  RH  018%=      5-min Rain = 0
KWE3 081940Z 19014KT 26/M01 A2976 RMK A01 T02581006  RH  018%=      5-min Rain = 0
KWE3 081941Z 18015KT 26/M01 A2976 RMK A01 T02571010  RH  017%=      5-min Rain = 0
KWE3 081942Z 17008KT 25/M02 A2976 RMK A01 T02531016  RH  017%=      5-min Rain = 0
KWE3 081943Z 16007KT 25/M01 A2976 RMK A01 T02511006  RH  018%=      5-min Rain = 0
KWE3 081944Z 17009KT 25/M01 A2976 RMK A01 T02541006  RH  018%=      5-min Rain = 0
KWE3 081945Z 18009KT 26/M00 A2976 RMK A01 T02571001  RH  018%=      5-min Rain = 0
KWE3 081946Z 20010KT 26/M00 A2976 RMK A01 T02591001  RH  018%=      5-min Rain = 0
KWE3 081947Z 21010KT 26/01 A2976 RMK A01 T02620007  RH  019%=      5-min Rain = 0
KWE3 081948Z 20007KT 27/M00 A2976 RMK A01 T02651002  RH  017%=      5-min Rain = 0
KWE3 081949Z 22013KT 27/00 A2976 RMK A01 T02650004  RH  018%=      5-min Rain = 0
KWE3 081950Z 21012KT 26/M01 A2976 RMK A01 T02641011  RH  016%=      5-min Rain = 0
KWE3 081951Z 20009G14KT 26/M01 A2976 RMK A01 T02611006  RH  017%=      5-min Rain = 0
KWE3 081952Z 20012KT 26/M01 A2976 RMK A01 T02601008  RH  017%=      5-min Rain = 0
KWE3 081953Z 19008KT 26/M01 A2976 RMK A01 T02571010  RH  017%=      5-min Rain = 0
KWE3 081954Z 21008KT 26/M01 A2975 RMK A01 T02571006  RH  018%=      5-min Rain = 0
KWE3 081955Z 20006KT 26/M01 A2975 RMK A01 T02571011  RH  017%=      5-min Rain = 0
KWE3 081956Z 21009KT 26/M00 A2975 RMK A01 T02561004  RH  018%=      5-min Rain = 0
KWE3 081957Z 20008KT 26/00 A2975 RMK A01 T02570001  RH  019%=      5-min Rain = 0
KWE3 081958Z 20008KT 26/M01 A2975 RMK A01 T02591011  RH  017%=      5-min Rain = 0
KWE3 081959Z 21010G16KT 26/M00 A2975 RMK A01 T02561003  RH  018%=      5-min Rain = 0
KWE3 082000Z 19012KT 26/M00 A2975 RMK A01 T02581002  RH  018%=      5-min Rain = 0
KWE3 082001Z 22008KT 26/00 A2975 RMK A01 T02580000  RH  018%=      5-min Rain = 0
KWE3 082002Z 23011G16KT 26/M00 A2975 RMK A01 T02601001  RH  018%=      5-min Rain = 0
KWE3 082003Z 22012KT 26/00 A2975 RMK A01 T02610001  RH  018%=      5-min Rain = 0
KWE3 082004Z 22009KT 26/M01 A2975 RMK A01 T02611006  RH  017%=      5-min Rain = 0
KWE3 082005Z 22009KT 26/00 A2975 RMK A01 T02600001  RH  018%=      5-min Rain = 0
KWE3 082006Z 23008G13KT 26/00 A2975 RMK A01 T02630000  RH  018%=      5-min Rain = 0
KWE3 082007Z 23010KT 26/M01 A2975 RMK A01 T02641007  RH  017%=      5-min Rain = 0
KWE3 082008Z 21009KT 26/M01 A2975 RMK A01 T02611005  RH  018%=      5-min Rain = 0
KWE3 082009Z 21006KT 26/M01 A2975 RMK A01 T02611010  RH  017%=      5-min Rain = 0
KWE3 082010Z 18009KT 26/M00 A2975 RMK A01 T02601003  RH  018%=      5-min Rain = 0
KWE3 082011Z 19012KT 26/M00 A2975 RMK A01 T02621001  RH  018%=      5-min Rain = 0
KWE3 082012Z 18009KT 26/M01 A2975 RMK A01 T02621008  RH  017%=      5-min Rain = 0
KWE3 082013Z 19009KT 26/M00 A2975 RMK A01 T02601004  RH  018%=      5-min Rain = 0
KWE3 082014Z 19010G17KT 26/M01 A2975 RMK A01 T02611007  RH  017%=      5-min Rain = 0
KWE3 082015Z 22013KT 26/M01 A2975 RMK A01 T02601005  RH  018%=      5-min Rain = 0
KWE3 082016Z 22013KT 26/M01 A2975 RMK A01 T02601008  RH  017%=      5-min Rain = 0
KWE3 082017Z 23008KT 26/M00 A2975 RMK A01 T02591003  RH  018%=      5-min Rain = 0
KWE3 082018Z 23007KT 26/M00 A2975 RMK A01 T02621002  RH  018%=      5-min Rain = 0
KWE3 082019Z 21007KT 26/01 A2975 RMK A01 T02630007  RH  019%=      5-min Rain = 0
KWE3 082020Z 20008KT 27/02 A2975 RMK A01 T02680018  RH  020%=      5-min Rain = 0
KWE3 082021Z 20012KT 27/01 A2974 RMK A01 T02720011  RH  018%=      5-min Rain = 0
KWE3 082022Z 20011KT 27/00 A2974 RMK A01 T02680000  RH  017%=      5-min Rain = 0
KWE3 082023Z 20007KT 26/00 A2974 RMK A01 T02640004  RH  018%=      5-min Rain = 0
KWE3 082024Z 23006KT 27/01 A2974 RMK A01 T02650007  RH  019%=      5-min Rain = 0
KWE3 082025Z 24005KT 27/M01 A2974 RMK A01 T02651010  RH  016%=      5-min Rain = 0
KWE3 082026Z 21005KT 26/M01 A2974 RMK A01 T02611008  RH  017%=      5-min Rain = 0
KWE3 082027Z 22008KT 26/00 A2974 RMK A01 T02600000  RH  018%=      5-min Rain = 0
KWE3 082028Z 22010KT 26/00 A2974 RMK A01 T02610001  RH  018%=      5-min Rain = 0
KWE3 082029Z 23010G15KT 26/00 A2974 RMK A01 T02640003  RH  018%=      5-min Rain = 0
KWE3 082030Z 25010KT 27/00 A2974 RMK A01 T02650004  RH  018%=      5-min Rain = 0
KWE3 082031Z 25011G17KT 27/00 A2974 RMK A01 T02670003  RH  018%=      5-min Rain = 0
KWE3 082032Z 24010KT 27/M00 A2974 RMK A01 T02671003  RH  017%=      5-min Rain = 0
KWE3 082033Z 23008KT 27/M00 A2974 RMK A01 T02651003  RH  017%=      5-min Rain = 0
KWE3 082034Z 22009KT 26/00 A2974 RMK A01 T02640002  RH  018%=      5-min Rain = 0
KWE3 082035Z 21008KT 26/00 A2974 RMK A01 T02640000  RH  018%=      5-min Rain = 0
KWE3 082036Z 20009KT 27/01 A2974 RMK A01 T02650010  RH  019%=      5-min Rain = 0
KWE3 082037Z 20009KT 27/00 A2974 RMK A01 T02660000  RH  018%=      5-min Rain = 0
KWE3 082038Z 23011G17KT 27/01 A2974 RMK A01 T02650005  RH  018%=      5-min Rain = 0
KWE3 082039Z 23014KT 27/00 A2973 RMK A01 T026500-0  RH  018%=      5-min Rain = 0
KWE3 082040Z 24013KT 27/00 A2973 RMK A01 T02650001  RH  018%=      5-min Rain = 0
KWE3 082041Z 25012G17KT 26/M01 A2973 RMK A01 T02641007  RH  017%=      5-min Rain = 0
KWE3 082042Z 22016KT 26/M00 A2973 RMK A01 T02621001  RH  018%=      5-min Rain = 0
KWE3 082043Z 22016KT 26/M01 A2973 RMK A01 T02631005  RH  017%=      5-min Rain = 0
KWE3 082044Z 23012KT 26/M01 A2973 RMK A01 T02611008  RH  017%=      5-min Rain = 0
KWE3 082045Z 23008KT 26/M00 A2973 RMK A01 T02601004  RH  018%=      5-min Rain = 0
KWE3 082046Z 22008KT 26/M00 A2973 RMK A01 T02601004  RH  018%=      5-min Rain = 0
KWE3 082047Z 22008KT 26/M00 A2973 RMK A01 T02611004  RH  018%=      5-min Rain = 0
KWE3 082048Z 21008KT 26/M01 A2973 RMK A01 T02601009  RH  017%=      5-min Rain = 0
KWE3 082049Z 22008KT 26/M01 A2973 RMK A01 T02581008  RH  017%=      5-min Rain = 0
KWE3 082050Z 22007KT 26/M01 A2973 RMK A01 T02571010  RH  017%=      5-min Rain = 0
KWE3 082051Z 22006KT 26/M01 A2972 RMK A01 T02571006  RH  018%=      5-min Rain = 0
KWE3 082052Z 25005KT 26/00 A2972 RMK A01 T02590001  RH  018%=      5-min Rain = 0
KWE3 082053Z 24011KT 26/00 A2972 RMK A01 T02620004  RH  019%=      5-min Rain = 0
KWE3 082054Z 22010KT 26/00 A2972 RMK A01 T02640001  RH  018%=      5-min Rain = 0
KWE3 082055Z 22010KT 27/01 A2972 RMK A01 T02650008  RH  019%=      5-min Rain = 0
KWE3 082056Z 22015KT 27/00 A2972 RMK A01 T02670002  RH  018%=      5-min Rain = 0
KWE3 082057Z 22017KT 27/00 A2972 RMK A01 T02650000  RH  018%=      5-min Rain = 0
KWE3 082058Z 22011G16KT 26/M00 A2972 RMK A01 T02631001  RH  018%=      5-min Rain = 0
KWE3 082059Z 23014KT 26/01 A2972 RMK A01 T02640005  RH  018%=      5-min Rain = 0
KWE3 082100Z 23015G20KT 26/00 A2971 RMK A01 T02640003  RH  018%=      5-min Rain = 0
KWE3 082101Z 20010KT 27/01 A2972 RMK A01 T02670006  RH  018%=      5-min Rain = 0
KWE3 082102Z 20010KT 27/01 A2972 RMK A01 T02680007  RH  018%=      5-min Rain = 0
KWE3 082103Z 21009G15KT 27/01 A2972 RMK A01 T02690006  RH  018%=      5-min Rain = 0
KWE3 082104Z 20011KT 27/01 A2972 RMK A01 T02700007  RH  018%=      5-min Rain = 0
KWE3 082105Z 20012KT 27/M00 A2971 RMK A01 T02681003  RH  017%=      5-min Rain = 0
KWE3 082106Z 21009KT 27/M00 A2972 RMK A01 T02651003  RH  017%=      5-min Rain = 0
KWE3 082107Z 20013G19KT 26/00 A2971 RMK A01 T02640001  RH  018%=      5-min Rain = 0
KWE3 082108Z 21014KT 26/M00 A2971 RMK A01 T02641003  RH  017%=      5-min Rain = 0
KWE3 082109Z 21013KT 27/M00 A2971 RMK A01 T02651002  RH  017%=      5-min Rain = 0
KWE3 082110Z 21010KT 27/00 A2971 RMK A01 T02650002  RH  018%=      5-min Rain = 0
KWE3 082111Z 22010KT 27/M00 A2971 RMK A01 T02661001  RH  017%=      5-min Rain = 0
KWE3 082112Z 23010KT 27/00 A2971 RMK A01 T02670001  RH  018%=      5-min Rain = 0
KWE3 082113Z 20008KT 27/01 A2971 RMK A01 T02680006  RH  018%=      5-min Rain = 0
KWE3 082114Z 19009KT 27/01 A2971 RMK A01 T02700005  RH  018%=      5-min Rain = 0
KWE3 082115Z 20014G20KT 27/01 A2971 RMK A01 T02710008  RH  018%=      5-min Rain = 0
KWE3 082116Z 21016KT 27/M00 A2971 RMK A01 T02691002  RH  017%=      5-min Rain = 0
KWE3 082117Z 23013KT 27/00 A2971 RMK A01 T02670002  RH  018%=      5-min Rain = 0
KWE3 082118Z 23014G19KT 27/M00 A2971 RMK A01 T02671002  RH  017%=      5-min Rain = 0
KWE3 082119Z 22014KT 27/00 A2971 RMK A01 T02650000  RH  018%=      5-min Rain = 0
KWE3 082120Z 20013KT 27/M00 A2971 RMK A01 T02651003  RH  017%=      5-min Rain = 0
KWE3 082121Z 20009KT 26/M00 A2971 RMK A01 T02641004  RH  017%=      5-min Rain = 0
KWE3 082122Z 22009KT 26/M00 A2971 RMK A01 T02631002  RH  018%=      5-min Rain = 0
KWE3 082123Z 20009G14KT 26/M01 A2971 RMK A01 T02641007  RH  017%=      5-min Rain = 0
KWE3 082124Z 22008KT 26/00 A2971 RMK A01 T02630003  RH  018%=      5-min Rain = 0
KWE3 082125Z 20007KT 27/01 A2971 RMK A01 T02660005  RH  018%=      5-min Rain = 0
KWE3 082126Z 18008KT 27/00 A2971 RMK A01 T02680003  RH  018%=      5-min Rain = 0
KWE3 082127Z 17010KT 27/M00 A2971 RMK A01 T02691002  RH  017%=      5-min Rain = 0
KWE3 082128Z 18011KT 27/M01 A2971 RMK A01 T02681005  RH  017%=      5-min Rain = 0
KWE3 082129Z 17007KT 26/M01 A2971 RMK A01 T02641010  RH  017%=      5-min Rain = 0
KWE3 082130Z 19008KT 26/00 A297 RMK A01 T026400-0  RH  018%=      5-min Rain = 0
KWE3 082131Z 20007KT 27/00 A297 RMK A01 T02650002  RH  018%=      5-min Rain = 0
KWE3 082132Z 23012G17KT 27/01 A297 RMK A01 T02680007  RH  018%=      5-min Rain = 0
KWE3 082133Z 23015KT 27/M00 A297 RMK A01 T02701003  RH  017%=      5-min Rain = 0
KWE3 082134Z 23013KT 27/M00 A297 RMK A01 T02671004  RH  017%=      5-min Rain = 0
KWE3 082135Z 23011G16KT 27/00 A297 RMK A01 T026500-0  RH  018%=      5-min Rain = 0
KWE3 082136Z 21016KT 27/00 A297 RMK A01 T026500-0  RH  018%=      5-min Rain = 0
KWE3 082137Z 21015KT 27/M00 A297 RMK A01 T02651003  RH  017%=      5-min Rain = 0
KWE3 082138Z 21012KT 27/M00 A297 RMK A01 T02661001  RH  017%=      5-min Rain = 0
KWE3 082139Z 20010KT 27/M00 A297 RMK A01 T02661003  RH  017%=      5-min Rain = 0
KWE3 082140Z 20007KT 27/M01 A297 RMK A01 T02651007  RH  017%=      5-min Rain = 0
KWE3 082141Z 22009G15KT 26/M00 A297 RMK A01 T02641001  RH  018%=      5-min Rain = 0
KWE3 082142Z 23011KT 27/00 A297 RMK A01 T02660001  RH  018%=      5-min Rain = 0
KWE3 082143Z 23011KT 27/M01 A297 RMK A01 T02671005  RH  017%=      5-min Rain = 0
KWE3 082144Z 22009KT 27/M01 A297 RMK A01 T02661006  RH  017%=      5-min Rain = 0
KWE3 082145Z 22009KT 27/M01 A297 RMK A01 T02651005  RH  017%=      5-min Rain = 0
KWE3 082146Z 20008KT 27/M01 A297 RMK A01 T02651007  RH  017%=      5-min Rain = 0
KWE3 082147Z 22011KT 27/M01 A297 RMK A01 T02661006  RH  017%=      5-min Rain = 0
KWE3 082148Z 21007KT 27/M00 A297 RMK A01 T02671004  RH  017%=      5-min Rain = 0
KWE3 082149Z 21008G13KT 27/M01 A297 RMK A01 T02681010  RH  016%=      5-min Rain = 0
KWE3 082150Z 19011G16KT 27/00 A297 RMK A01 T02690004  RH  018%=      5-min Rain = 0
KWE3 082151Z 20013KT 27/M00 A297 RMK A01 T02701004  RH  017%=      5-min Rain = 0
KWE3 082152Z 19009KT 27/M00 A297 RMK A01 T02671003  RH  017%=      5-min Rain = 0
KWE3 082153Z 21009KT 27/00 A297 RMK A01 T026700-0  RH  017%=      5-min Rain = 0
KWE3 082154Z 20009KT 27/M00 A297 RMK A01 T02681004  RH  017%=      5-min Rain = 0
KWE3 082155Z 20011G16KT 27/00 A297 RMK A01 T026900-0  RH  017%=      5-min Rain = 0
KWE3 082156Z 21009KT 27/M00 A297 RMK A01 T02701001  RH  017%=      5-min Rain = 0
KWE3 082157Z 21007G12KT 27/00 A297 RMK A01 T02710001  RH  017%=      5-min Rain = 0
KWE3 082158Z 21009KT 27/M00 A297 RMK A01 T02711004  RH  017%=      5-min Rain = 0
KWE3 082159Z 23010KT 27/00 A297 RMK A01 T026900-0  RH  017%=      5-min Rain = 0
KWE3 082200Z 23010KT 27/M01 A297 RMK A01 T02691011  RH  016%=      5-min Rain = 0
KWE3 082201Z 23007KT 27/M01 A297 RMK A01 T02661011  RH  016%=      5-min Rain = 0
KWE3 082202Z 20008KT 26/M01 A297 RMK A01 T02641009  RH  017%=      5-min Rain = 0
KWE3 082203Z 20009G14KT 27/M01 A297 RMK A01 T02651005  RH  017%=      5-min Rain = 0
KWE3 082204Z 21008G13KT 27/M01 A297 RMK A01 T02651006  RH  017%=      5-min Rain = 0
KWE3 082205Z 20007KT 27/M01 A297 RMK A01 T02651005  RH  017%=      5-min Rain = 0
KWE3 082206Z 20007G12KT 27/M01 A2969 RMK A01 T02651007  RH  017%=      5-min Rain = 0
KWE3 082207Z 21005KT 27/M00 A297 RMK A01 T02651004  RH  017%=      5-min Rain = 0
KWE3 082208Z 21007KT 27/00 A297 RMK A01 T02660000  RH  018%=      5-min Rain = 0
KWE3 082209Z 20010KT 27/00 A2969 RMK A01 T02680003  RH  018%=      5-min Rain = 0
KWE3 082210Z 22012KT 27/01 A297 RMK A01 T02690005  RH  018%=      5-min Rain = 0
KWE3 082211Z 22009KT 27/M01 A297 RMK A01 T02691007  RH  016%=      5-min Rain = 0
KWE3 082212Z 21006KT 27/M01 A297 RMK A01 T02661006  RH  017%=      5-min Rain = 0
KWE3 082213Z 22005KT 27/M01 A297 RMK A01 T02661009  RH  016%=      5-min Rain = 0
KWE3 082214Z 21005G10KT 27/M01 A297 RMK A01 T02651006  RH  017%=      5-min Rain = 0
KWE3 082215Z 18007KT 27/M00 A297 RMK A01 T02661003  RH  017%=      5-min Rain = 0
KWE3 082216Z 19009KT 27/M01 A2969 RMK A01 T02671006  RH  017%=      5-min Rain = 0
KWE3 082217Z 21007KT 27/M00 A2969 RMK A01 T02671001  RH  017%=      5-min Rain = 0
KWE3 082218Z 19010G15KT 27/00 A2969 RMK A01 T026800-0  RH  017%=      5-min Rain = 0
KWE3 082219Z 18009KT 27/M01 A2969 RMK A01 T02681013  RH  016%=      5-min Rain = 0
KWE3 082220Z 19008KT 27/M01 A2969 RMK A01 T02671011  RH  016%=      5-min Rain = 0
KWE3 082221Z 20009KT 27/M01 A2969 RMK A01 T02671007  RH  017%=      5-min Rain = 0
KWE3 082222Z 23008KT 27/M01 A2969 RMK A01 T02691009  RH  016%=      5-min Rain = 0
KWE3 082223Z 24006KT 27/M01 A2969 RMK A01 T02691010  RH  016%=      5-min Rain = 0
KWE3 082224Z 25007KT 27/M01 A2969 RMK A01 T02691008  RH  016%=      5-min Rain = 0
KWE3 082225Z 24009KT 27/M01 A2969 RMK A01 T02691005  RH  017%=      5-min Rain = 0
KWE3 082226Z 22009KT 27/M00 A2969 RMK A01 T02711004  RH  017%=      5-min Rain = 0
KWE3 082227Z 21010G15KT 27/M00 A2969 RMK A01 T02711002  RH  017%=      5-min Rain = 0
KWE3 082228Z 19008KT 27/M00 A2969 RMK A01 T02711002  RH  017%=      5-min Rain = 0
KWE3 082229Z 19010KT 27/M01 A2969 RMK A01 T02701008  RH  016%=      5-min Rain = 0
KWE3 082230Z 21010KT 27/M00 A2969 RMK A01 T02681003  RH  017%=      5-min Rain = 0
KWE3 082231Z 22010KT 27/00 A2969 RMK A01 T02690001  RH  017%=      5-min Rain = 0
KWE3 082232Z 22011KT 27/M01 A2969 RMK A01 T02701006  RH  016%=      5-min Rain = 0
KWE3 082233Z 23010KT 27/M01 A2969 RMK A01 T02701006  RH  016%=      5-min Rain = 0
KWE3 082234Z 23010KT 27/M01 A2969 RMK A01 T02691005  RH  017%=      5-min Rain = 0
KWE3 082235Z 23011KT 27/M01 A2969 RMK A01 T02691006  RH  016%=      5-min Rain = 0
KWE3 082236Z 23012KT 27/M01 A2969 RMK A01 T02681013  RH  016%=      5-min Rain = 0
KWE3 082237Z 22010KT 27/M01 A2969 RMK A01 T02671013  RH  016%=      5-min Rain = 0
KWE3 082238Z 20008KT 27/M01 A2969 RMK A01 T02671009  RH  016%=      5-min Rain = 0
KWE3 082239Z 19010KT 27/M01 A2969 RMK A01 T02671009  RH  016%=      5-min Rain = 0
KWE3 082240Z 20011KT 27/M01 A2969 RMK A01 T02671011  RH  016%=      5-min Rain = 0
KWE3 082241Z 20008KT 27/M01 A2969 RMK A01 T02671009  RH  016%=      5-min Rain = 0
KWE3 082242Z 21007KT 27/M01 A2969 RMK A01 T02671009  RH  016%=      5-min Rain = 0
KWE3 082243Z 18007KT 27/M01 A2969 RMK A01 T02681006  RH  017%=      5-min Rain = 0
KWE3 082244Z 17005KT 27/M01 A2969 RMK A01 T02691014  RH  016%=      5-min Rain = 0
KWE3 082245Z 20006KT 27/M01 A2969 RMK A01 T02681008  RH  016%=      5-min Rain = 0
KWE3 082246Z 20010KT 27/M01 A2969 RMK A01 T02681006  RH  017%=      5-min Rain = 0
KWE3 082247Z 21009KT 27/00 A2969 RMK A01 T02690001  RH  017%=      5-min Rain = 0
KWE3 082248Z 21010KT 27/M01 A2969 RMK A01 T02691008  RH  016%=      5-min Rain = 0
KWE3 082249Z 22011KT 27/M01 A2969 RMK A01 T02681010  RH  016%=      5-min Rain = 0
KWE3 082250Z 22010KT 27/M01 A2969 RMK A01 T02661014  RH  016%=      5-min Rain = 0
KWE3 082251Z 22007KT 27/M02 A2969 RMK A01 T02661016  RH  016%=      5-min Rain = 0
KWE3 082252Z 22006KT 27/M01 A2968 RMK A01 T02651013  RH  016%=      5-min Rain = 0
KWE3 082253Z 23008KT 27/M01 A2968 RMK A01 T02651014  RH  016%=      5-min Rain = 0
KWE3 082254Z 21007KT 27/M02 A2968 RMK A01 T02651018  RH  015%=      5-min Rain = 0
KWE3 082255Z 20009KT 27/M01 A2968 RMK A01 T02651010  RH  016%=      5-min Rain = 0
KWE3 082256Z 20008KT 27/M02 A2968 RMK A01 T02651018  RH  015%=      5-min Rain = 0
KWE3 082257Z 19010KT 26/M02 A2968 RMK A01 T02641018  RH  016%=      5-min Rain = 0
KWE3 082258Z 19009KT 26/M02 A2968 RMK A01 T02631018  RH  016%=      5-min Rain = 0
KWE3 082259Z 19007KT 26/M02 A2968 RMK A01 T02631019  RH  016%=      5-min Rain = 0
KWE3 082300Z 18007KT 26/M02 A2968 RMK A01 T02641017  RH  016%=      5-min Rain = 0
KWE3 082301Z 19009KT 27/M01 A2968 RMK A01 T02651011  RH  016%=      5-min Rain = 0
KWE3 082302Z 19009KT 27/M01 A2968 RMK A01 T02661013  RH  016%=      5-min Rain = 0
KWE3 082303Z 20009KT 27/M01 A2968 RMK A01 T02661014  RH  016%=      5-min Rain = 0
KWE3 082304Z 20006KT 27/M01 A2968 RMK A01 T02661012  RH  016%=      5-min Rain = 0
KWE3 082305Z 20006KT 27/M01 A2968 RMK A01 T02661005  RH  017%=      5-min Rain = 0
KWE3 082306Z 20007KT 27/M02 A2968 RMK A01 T02661016  RH  016%=      5-min Rain = 0
KWE3 082307Z 21007KT 27/M01 A2968 RMK A01 T02661010  RH  016%=      5-min Rain = 0
KWE3 082308Z 20007G13KT 27/M01 A2968 RMK A01 T02651008  RH  017%=      5-min Rain = 0
KWE3 082309Z 19011KT 27/M00 A2968 RMK A01 T02651003  RH  017%=      5-min Rain = 0
KWE3 082310Z 18010KT 27/M01 A2968 RMK A01 T02651007  RH  017%=      5-min Rain = 0
KWE3 082311Z 19008KT 26/M01 A2968 RMK A01 T02631006  RH  017%=      5-min Rain = 0
KWE3 082312Z 19009KT 26/M01 A2968 RMK A01 T02631005  RH  017%=      5-min Rain = 0
KWE3 082313Z 20008KT 26/M00 A2968 RMK A01 T02631004  RH  017%=      5-min Rain = 0
KWE3 082314Z 19006KT 26/00 A2968 RMK A01 T02620001  RH  018%=      5-min Rain = 0
KWE3 082315Z 20007KT 26/M00 A2968 RMK A01 T02621001  RH  018%=      5-min Rain = 0
KWE3 082316Z 20006KT 26/00 A2968 RMK A01 T026200-0  RH  018%=      5-min Rain = 0
KWE3 082317Z 20007KT 26/M00 A2968 RMK A01 T02621003  RH  018%=      5-min Rain = 0
KWE3 082318Z 21006KT 26/M00 A2968 RMK A01 T02621002  RH  018%=      5-min Rain = 0
KWE3 082319Z 22006KT 26/00 A2968 RMK A01 T02620000  RH  018%=      5-min Rain = 0
KWE3 082320Z 21007KT 26/M01 A2968 RMK A01 T02631006  RH  017%=      5-min Rain = 0
KWE3 082321Z 21008KT 26/M01 A2968 RMK A01 T02641012  RH  016%=      5-min Rain = 0
KWE3 082322Z 22008KT 26/M01 A2968 RMK A01 T02641012  RH  016%=      5-min Rain = 0
KWE3 082323Z 22008KT 26/M02 A2968 RMK A01 T02641016  RH  016%=      5-min Rain = 0
KWE3 082324Z 22007KT 26/M01 A2968 RMK A01 T02641009  RH  017%=      5-min Rain = 0
KWE3 082325Z 22007KT 26/M01 A2968 RMK A01 T02641010  RH  016%=      5-min Rain = 0
KWE3 082326Z 21008KT 26/M01 A2968 RMK A01 T02641005  RH  017%=      5-min Rain = 0
KWE3 082327Z 22008KT 27/M01 A2968 RMK A01 T02651011  RH  016%=      5-min Rain = 0
KWE3 082328Z 21007KT 27/M01 A2968 RMK A01 T02651014  RH  016%=      5-min Rain = 0
KWE3 082329Z 21007KT 27/M01 A2968 RMK A01 T02651013  RH  016%=      5-min Rain = 0
KWE3 082330Z 21007KT 27/M01 A2968 RMK A01 T02651013  RH  016%=      5-min Rain = 0
KWE3 082331Z 21005KT 26/M00 A2968 RMK A01 T02641004  RH  017%=      5-min Rain = 0
KWE3 082332Z 20007KT 26/M00 A2968 RMK A01 T02641002  RH  018%=      5-min Rain = 0
KWE3 082333Z 20009KT 26/M00 A2968 RMK A01 T02631004  RH  017%=      5-min Rain = 0
KWE3 082334Z 19011KT 26/M01 A2968 RMK A01 T02611009  RH  017%=      5-min Rain = 0
KWE3 082335Z 20011KT 26/M01 A2968 RMK A01 T02601007  RH  017%=      5-min Rain = 0
KWE3 082336Z 20010KT 26/M00 A2968 RMK A01 T02581003  RH  018%=      5-min Rain = 0
KWE3 082337Z 20008KT 26/M01 A2968 RMK A01 T02581007  RH  018%=      5-min Rain = 0
KWE3 082338Z 19007KT 26/M00 A2968 RMK A01 T02571002  RH  018%=      5-min Rain = 0
KWE3 082339Z 20009KT 26/M00 A2968 RMK A01 T02571004  RH  018%=      5-min Rain = 0
KWE3 082340Z 19009KT 26/M01 A2968 RMK A01 T02571011  RH  017%=      5-min Rain = 0
KWE3 082341Z 18007KT 26/M01 A2968 RMK A01 T02581005  RH  018%=      5-min Rain = 0
KWE3 082342Z 20010KT 26/M00 A2968 RMK A01 T02591004  RH  018%=      5-min Rain = 0
KWE3 082343Z 20009KT 26/M01 A2968 RMK A01 T02591005  RH  018%=      5-min Rain = 0
KWE3 082344Z 19009KT 26/M01 A2968 RMK A01 T02591009  RH  017%=      5-min Rain = 0
KWE3 082345Z 18008KT 26/M01 A2968 RMK A01 T02591005  RH  018%=      5-min Rain = 0
KWE3 082346Z 18010KT 26/M01 A2968 RMK A01 T02591011  RH  017%=      5-min Rain = 0
KWE3 082347Z 19009KT 26/M01 A2968 RMK A01 T02601010  RH  017%=      5-min Rain = 0
KWE3 082348Z 20009KT 26/M01 A2968 RMK A01 T02601007  RH  017%=      5-min Rain = 0
KWE3 082349Z 18009KT 26/M01 A2968 RMK A01 T02601007  RH  017%=      5-min Rain = 0
KWE3 082350Z 18012KT 26/M01 A2968 RMK A01 T02601008  RH  017%=      5-min Rain = 0
KWE3 082351Z 19010KT 26/M02 A2968 RMK A01 T02601015  RH  016%=      5-min Rain = 0
KWE3 082352Z 19011KT 26/M02 A2968 RMK A01 T02591016  RH  016%=      5-min Rain = 0
KWE3 082353Z 19010KT 26/M02 A2968 RMK A01 T02591015  RH  016%=      5-min Rain = 0
KWE3 082354Z 18009KT 26/M01 A2968 RMK A01 T02591011  RH  017%=      5-min Rain = 0
KWE3 082355Z 18011KT 26/M01 A2968 RMK A01 T02591011  RH  017%=      5-min Rain = 0
KWE3 082356Z 18010KT 26/M02 A2968 RMK A01 T02581016  RH  016%=      5-min Rain = 0
KWE3 082357Z 18009KT 26/M01 A2968 RMK A01 T02581012  RH  017%=      5-min Rain = 0
KWE3 082358Z 18010KT 26/M01 A2968 RMK A01 T02571013  RH  017%=      5-min Rain = 0
KWE3 082359Z 18009KT 26/M01 A2968 RMK A01 T02571014  RH  017%=      5-min Rain = 0
KWE3 090000Z 19008KT 26/M01 A2968 RMK A01 T02571012  RH  017%=      5-min Rain = 0
KWE3 090001Z 19007KT 26/M01 A2968 RMK A01 T02561009  RH  017%=      5-min Rain = 0
KWE3 090002Z 19007KT 26/M01 A2968 RMK A01 T02561005  RH  018%=      5-min Rain = 0
KWE3 090003Z 20008KT 26/M01 A2968 RMK A01 T02561007  RH  018%=      5-min Rain = 0
KWE3 090004Z 18007KT 26/M00 A2968 RMK A01 T02551004  RH  018%=      5-min Rain = 0
KWE3 090005Z 19008KT 26/M01 A2968 RMK A01 T02551006  RH  018%=      5-min Rain = 0
KWE3 090006Z 19008KT 26/M01 A2968 RMK A01 T02551007  RH  018%=      5-min Rain = 0
KWE3 090007Z 19010KT 26/M01 A2968 RMK A01 T02551006  RH  018%=      5-min Rain = 0
KWE3 090008Z 18007KT 26/M01 A2968 RMK A01 T02551005  RH  018%=      5-min Rain = 0
KWE3 090009Z 18009KT 25/M01 A2968 RMK A01 T02541006  RH  018%=      5-min Rain = 0
KWE3 090010Z 18009KT 25/M01 A2967 RMK A01 T02541010  RH  018%=      5-min Rain = 0
KWE3 090011Z 18009KT 25/M01 A2967 RMK A01 T02541010  RH  018%=      5-min Rain = 0
KWE3 090012Z 18008KT 25/M01 A2967 RMK A01 T02541008  RH  018%=      5-min Rain = 0
KWE3 090013Z 18009KT 25/M01 A2967 RMK A01 T02531007  RH  018%=      5-min Rain = 0
KWE3 090014Z 18010KT 25/M01 A2967 RMK A01 T02521011  RH  018%=      5-min Rain = 0
KWE3 090015Z 17010KT 25/M02 A2967 RMK A01 T02521016  RH  017%=      5-min Rain = 0
KWE3 090016Z 17009KT 25/M01 A2967 RMK A01 T02521014  RH  017%=      5-min Rain = 0
KWE3 090017Z 17010KT 25/M01 A2967 RMK A01 T02521011  RH  018%=      5-min Rain = 0
KWE3 090018Z 18009KT 25/M01 A2967 RMK A01 T02511009  RH  018%=      5-min Rain = 0
KWE3 090019Z 18008KT 25/M01 A2967 RMK A01 T02501008  RH  018%=      5-min Rain = 0
KWE3 090020Z 17008KT 25/M01 A2967 RMK A01 T02501005  RH  019%=      5-min Rain = 0
KWE3 090021Z 17008KT 25/M00 A2967 RMK A01 T02481002  RH  019%=      5-min Rain = 0
KWE3 090022Z 17009KT 25/M00 A2967 RMK A01 T02471002  RH  019%=      5-min Rain = 0
KWE3 090023Z 17008KT 25/M00 A2967 RMK A01 T02471003  RH  019%=      5-min Rain = 0
KWE3 090024Z 17008KT 25/M00 A2967 RMK A01 T02461003  RH  019%=      5-min Rain = 0
KWE3 090025Z 17007KT 25/M00 A2967 RMK A01 T02451002  RH  020%=      5-min Rain = 0
KWE3 090026Z 17007KT 24/M00 A2967 RMK A01 T02441002  RH  020%=      5-min Rain = 0
KWE3 090027Z 17008KT 24/M00 A2967 RMK A01 T02441003  RH  020%=      5-min Rain = 0
KWE3 090028Z 17008KT 24/M00 A2967 RMK A01 T02441003  RH  020%=      5-min Rain = 0
KWE3 090029Z 17008KT 24/M00 A2967 RMK A01 T02431001  RH  020%=      5-min Rain = 0
KWE3 090030Z 17008KT 24/M00 A2967 RMK A01 T02421001  RH  020%=      5-min Rain = 0
KWE3 090031Z 17008KT 24/M00 A2967 RMK A01 T02411002  RH  020%=      5-min Rain = 0
KWE3 090032Z 17008KT 24/M00 A2967 RMK A01 T02401002  RH  020%=      5-min Rain = 0
KWE3 090033Z 17007KT 24/M00 A2967 RMK A01 T02391002  RH  020%=      5-min Rain = 0
KWE3 090034Z 17008KT 24/M00 A2967 RMK A01 T02381002  RH  020%=      5-min Rain = 0
KWE3 090035Z 17008KT 24/M00 A2967 RMK A01 T02371002  RH  021%=      5-min Rain = 0
KWE3 090036Z 17008KT 24/M00 A2967 RMK A01 T02361002  RH  021%=      5-min Rain = 0
KWE3 090037Z 17008KT 24/M00 A2967 RMK A01 T02351002  RH  021%=      5-min Rain = 0
KWE3 090038Z 17008KT 24/M00 A2967 RMK A01 T02351001  RH  021%=      5-min Rain = 0
KWE3 090039Z 17007KT 23/00 A2967 RMK A01 T023300-0  RH  021%=      5-min Rain = 0
KWE3 090040Z 17008KT 23/M00 A2967 RMK A01 T02321001  RH  021%=      5-min Rain = 0
KWE3 090041Z 17007KT 23/00 A2967 RMK A01 T023100-0  RH  022%=      5-min Rain = 0
KWE3 090042Z 17007KT 23/00 A2967 RMK A01 T02300000  RH  022%=      5-min Rain = 0
KWE3 090043Z 17007KT 23/00 A2967 RMK A01 T02280001  RH  022%=      5-min Rain = 0
KWE3 090044Z 17007KT 23/00 A2967 RMK A01 T02270001  RH  022%=      5-min Rain = 0
KWE3 090045Z 17007KT 23/00 A2967 RMK A01 T02260003  RH  023%=      5-min Rain = 0
KWE3 090046Z 17008KT 23/00 A2967 RMK A01 T02250004  RH  023%=      5-min Rain = 0
KWE3 090047Z 17008KT 22/01 A2967 RMK A01 T02230005  RH  023%=      5-min Rain = 0
KWE3 090048Z 17008KT 22/01 A2967 RMK A01 T02220005  RH  024%=      5-min Rain = 0
KWE3 090049Z 17008KT 22/01 A2967 RMK A01 T02200005  RH  024%=      5-min Rain = 0
KWE3 090050Z 17008KT 22/00 A2967 RMK A01 T02200004  RH  024%=      5-min Rain = 0
KWE3 090051Z 16008KT 22/00 A2967 RMK A01 T02190004  RH  024%=      5-min Rain = 0
KWE3 090052Z 16008KT 22/01 A2966 RMK A01 T02180005  RH  024%=      5-min Rain = 0
KWE3 090053Z 16008KT 22/01 A2966 RMK A01 T02160005  RH  025%=      5-min Rain = 0
KWE3 090054Z 15008KT 21/01 A2966 RMK A01 T02140005  RH  025%=      5-min Rain = 0
KWE3 090055Z 15007KT 21/01 A2966 RMK A01 T02130006  RH  025%=      5-min Rain = 0
KWE3 090056Z 15008KT 21/01 A2966 RMK A01 T02100007  RH  026%=      5-min Rain = 0
KWE3 090057Z 15008KT 21/01 A2966 RMK A01 T02080007  RH  026%=      5-min Rain = 0
KWE3 090058Z 15008KT 21/01 A2966 RMK A01 T02070008  RH  027%=      5-min Rain = 0
KWE3 090059Z 15008KT 21/01 A2966 RMK A01 T02050008  RH  027%=      5-min Rain = 0
KWE3 090100Z 15008KT 20/01 A2966 RMK A01 T02040008  RH  027%=      5-min Rain = 0
KWE3 090101Z 15008KT 20/01 A2966 RMK A01 T02040007  RH  027%=      5-min Rain = 0
KWE3 090102Z 15008KT 20/01 A2966 RMK A01 T02030007  RH  027%=      5-min Rain = 0
KWE3 090103Z 15008KT 20/01 A2966 RMK A01 T02030007  RH  027%=      5-min Rain = 0
KWE3 090104Z 15008KT 20/01 A2966 RMK A01 T02020007  RH  027%=      5-min Rain = 0
KWE3 090105Z 15008KT 20/01 A2966 RMK A01 T02010007  RH  027%=      5-min Rain = 0
KWE3 090106Z 15008KT 20/01 A2966 RMK A01 T02010007  RH  027%=      5-min Rain = 0
KWE3 090107Z 15009KT 20/01 A2965 RMK A01 T02000007  RH  027%=      5-min Rain = 0
KWE3 090108Z 15008KT 20/01 A2965 RMK A01 T02000007  RH  028%=      5-min Rain = 0
KWE3 090109Z 15009KT 20/01 A2965 RMK A01 T01990007  RH  028%=      5-min Rain = 0
KWE3 090110Z 15008KT 20/01 A2965 RMK A01 T01980007  RH  028%=      5-min Rain = 0
KWE3 090111Z 15008KT 20/01 A2965 RMK A01 T01980008  RH  028%=      5-min Rain = 0
KWE3 090112Z 15009KT 20/01 A2965 RMK A01 T01980007  RH  028%=      5-min Rain = 0
KWE3 090113Z 15009KT 20/01 A2965 RMK A01 T01980008  RH  028%=      5-min Rain = 0
KWE3 090114Z 15010KT 20/01 A2965 RMK A01 T01980008  RH  028%=      5-min Rain = 0
KWE3 090115Z 15010KT 20/01 A2965 RMK A01 T01980008  RH  028%=      5-min Rain = 0
KWE3 090116Z 14010KT 20/01 A2965 RMK A01 T01980008  RH  028%=      5-min Rain = 0
KWE3 090117Z 14010KT 20/01 A2965 RMK A01 T01980009  RH  028%=      5-min Rain = 0
KWE3 090118Z 14009KT 20/01 A2965 RMK A01 T01990008  RH  028%=      5-min Rain = 0
KWE3 090119Z 14009KT 20/01 A2965 RMK A01 T02000008  RH  028%=      5-min Rain = 0
KWE3 090120Z 14009KT 20/01 A2965 RMK A01 T02010007  RH  027%=      5-min Rain = 0
KWE3 090121Z 14010KT 20/01 A2964 RMK A01 T02020006  RH  027%=      5-min Rain = 0
KWE3 090122Z 14009KT 20/01 A2964 RMK A01 T02030006  RH  027%=      5-min Rain = 0
KWE3 090123Z 14010KT 20/01 A2965 RMK A01 T02030006  RH  027%=      5-min Rain = 0
KWE3 090124Z 14010KT 20/01 A2965 RMK A01 T02020006  RH  027%=      5-min Rain = 0
KWE3 090125Z 14010KT 20/01 A2964 RMK A01 T02020006  RH  027%=      5-min Rain = 0
KWE3 090126Z 14010KT 20/01 A2964 RMK A01 T02020005  RH  027%=      5-min Rain = 0
KWE3 090127Z 14010KT 20/01 A2964 RMK A01 T02020005  RH  027%=      5-min Rain = 0
KWE3 090128Z 14010KT 20/01 A2964 RMK A01 T02020005  RH  027%=      5-min Rain = 0
KWE3 090129Z 14010KT 20/01 A2964 RMK A01 T02020005  RH  027%=      5-min Rain = 0
KWE3 090130Z 15010KT 20/01 A2965 RMK A01 T02020005  RH  027%=      5-min Rain = 0
KWE3 090131Z 15009KT 20/00 A2965 RMK A01 T02010004  RH  027%=      5-min Rain = 0
KWE3 090132Z 15010KT 20/01 A2965 RMK A01 T02000005  RH  027%=      5-min Rain = 0
KWE3 090133Z 15010KT 20/01 A2965 RMK A01 T01990005  RH  027%=      5-min Rain = 0
KWE3 090134Z 15010KT 20/01 A2965 RMK A01 T01990005  RH  027%=      5-min Rain = 0
KWE3 090135Z 15010KT 20/01 A2965 RMK A01 T01980005  RH  028%=      5-min Rain = 0
KWE3 090136Z 15010KT 20/01 A2965 RMK A01 T01980005  RH  028%=      5-min Rain = 0
KWE3 090137Z 15010KT 20/01 A2965 RMK A01 T01980005  RH  028%=      5-min Rain = 0
KWE3 090138Z 15009KT 20/01 A2965 RMK A01 T01980005  RH  027%=      5-min Rain = 0
KWE3 090139Z 15009KT 20/01 A2965 RMK A01 T01980005  RH  028%=      5-min Rain = 0
KWE3 090140Z 15009KT 20/01 A2965 RMK A01 T01970005  RH  028%=      5-min Rain = 0
KWE3 090141Z 15010KT 20/01 A2965 RMK A01 T01960006  RH  028%=      5-min Rain = 0
KWE3 090142Z 15010KT 20/01 A2965 RMK A01 T01960005  RH  028%=      5-min Rain = 0
KWE3 090143Z 16010KT 20/01 A2964 RMK A01 T01960005  RH  028%=      5-min Rain = 0
KWE3 090144Z 15010KT 20/01 A2964 RMK A01 T01960005  RH  028%=      5-min Rain = 0
KWE3 090145Z 15010KT 20/01 A2964 RMK A01 T01950006  RH  028%=      5-min Rain = 0
KWE3 090146Z 15010KT 19/01 A2964 RMK A01 T01940006  RH  028%=      5-min Rain = 0
KWE3 090147Z 15010KT 19/01 A2964 RMK A01 T01930006  RH  028%=      5-min Rain = 0
KWE3 090148Z 15010KT 19/01 A2964 RMK A01 T01930006  RH  029%=      5-min Rain = 0
KWE3 090149Z 15010KT 19/01 A2964 RMK A01 T01930007  RH  029%=      5-min Rain = 0
KWE3 090150Z 15010KT 19/01 A2964 RMK A01 T01920007  RH  029%=      5-min Rain = 0
KWE3 090151Z 15010KT 19/01 A2964 RMK A01 T01920007  RH  029%=      5-min Rain = 0
KWE3 090152Z 15010KT 19/01 A2964 RMK A01 T01920007  RH  029%=      5-min Rain = 0
KWE3 090153Z 15010KT 19/01 A2964 RMK A01 T01920008  RH  029%=      5-min Rain = 0
KWE3 090154Z 15010KT 19/01 A2964 RMK A01 T01910008  RH  029%=      5-min Rain = 0
KWE3 090155Z 15010KT 19/01 A2964 RMK A01 T01910007  RH  029%=      5-min Rain = 0
KWE3 090156Z 15010KT 19/01 A2964 RMK A01 T01910007  RH  029%=      5-min Rain = 0
KWE3 090157Z 15010KT 19/01 A2964 RMK A01 T01900007  RH  029%=      5-min Rain = 0
KWE3 090158Z 15010KT 19/01 A2964 RMK A01 T01900007  RH  029%=      5-min Rain = 0
KWE3 090159Z 15010KT 19/01 A2964 RMK A01 T01890008  RH  030%=      5-min Rain = 0
KWE3 090200Z 15009KT 19/01 A2964 RMK A01 T01880008  RH  030%=      5-min Rain = 0
KWE3 090201Z 14009KT 19/01 A2964 RMK A01 T01880008  RH  030%=      5-min Rain = 0
KWE3 090202Z 14009KT 19/01 A2964 RMK A01 T01890007  RH  030%=      5-min Rain = 0
KWE3 090203Z 14008KT 19/01 A2964 RMK A01 T01890007  RH  030%=      5-min Rain = 0
KWE3 090204Z 13009KT 19/01 A2964 RMK A01 T01880007  RH  030%=      5-min Rain = 0
KWE3 090205Z 13008KT 19/01 A2964 RMK A01 T01870007  RH  030%=      5-min Rain = 0
KWE3 090206Z 13008KT 19/01 A2964 RMK A01 T01860007  RH  030%=      5-min Rain = 0
KWE3 090207Z 13009KT 19/01 A2964 RMK A01 T01860008  RH  030%=      5-min Rain = 0
KWE3 090208Z 13007KT 19/01 A2964 RMK A01 T01860009  RH  030%=      5-min Rain = 0
KWE3 090209Z 13008KT 19/01 A2964 RMK A01 T01850009  RH  031%=      5-min Rain = 0
KWE3 090210Z 13007KT 19/01 A2964 RMK A01 T01850010  RH  031%=      5-min Rain = 0
KWE3 090211Z 13008KT 18/01 A2964 RMK A01 T01830011  RH  031%=      5-min Rain = 0
KWE3 090212Z 13008KT 18/01 A2964 RMK A01 T01810011  RH  032%=      5-min Rain = 0
KWE3 090213Z 12008KT 18/01 A2965 RMK A01 T01800012  RH  032%=      5-min Rain = 0
KWE3 090214Z 12008KT 18/01 A2965 RMK A01 T01790012  RH  032%=      5-min Rain = 0
KWE3 090215Z 12008KT 18/01 A2965 RMK A01 T01780012  RH  033%=      5-min Rain = 0
KWE3 090216Z 11008KT 18/01 A2965 RMK A01 T01770013  RH  033%=      5-min Rain = 0
KWE3 090217Z 12007KT 18/01 A2965 RMK A01 T01760013  RH  033%=      5-min Rain = 0
KWE3 090218Z 12007KT 18/01 A2965 RMK A01 T01760013  RH  033%=      5-min Rain = 0
KWE3 090219Z 12007KT 17/01 A2965 RMK A01 T01740014  RH  034%=      5-min Rain = 0
KWE3 090220Z 12008KT 17/02 A2965 RMK A01 T01730015  RH  034%=      5-min Rain = 0
KWE3 090221Z 13008KT 17/02 A2965 RMK A01 T01720016  RH  035%=      5-min Rain = 0
KWE3 090222Z 13008KT 17/02 A2965 RMK A01 T01720017  RH  035%=      5-min Rain = 0
KWE3 090223Z 13008KT 17/02 A2965 RMK A01 T01720017  RH  035%=      5-min Rain = 0
KWE3 090224Z 13008KT 17/02 A2965 RMK A01 T01720017  RH  035%=      5-min Rain = 0
KWE3 090225Z 13009KT 17/02 A2965 RMK A01 T01720017  RH  035%=      5-min Rain = 0
KWE3 090226Z 13009KT 17/02 A2965 RMK A01 T01730017  RH  035%=      5-min Rain = 0
KWE3 090227Z 13009KT 18/02 A2965 RMK A01 T01750018  RH  035%=      5-min Rain = 0
KWE3 090228Z 13009KT 18/02 A2965 RMK A01 T01760018  RH  035%=      5-min Rain = 0
KWE3 090229Z 13008KT 18/02 A2965 RMK A01 T01760018  RH  034%=      5-min Rain = 0
KWE3 090230Z 13009KT 18/02 A2965 RMK A01 T01760018  RH  035%=      5-min Rain = 0
KWE3 090231Z 13009KT 18/02 A2965 RMK A01 T01760018  RH  035%=      5-min Rain = 0
KWE3 090232Z 13009KT 18/02 A2965 RMK A01 T01760019  RH  035%=      5-min Rain = 0
KWE3 090233Z 13008KT 18/02 A2965 RMK A01 T01760019  RH  035%=      5-min Rain = 0
KWE3 090234Z 13009KT 18/02 A2965 RMK A01 T01750019  RH  035%=      5-min Rain = 0
KWE3 090235Z 13009KT 18/02 A2965 RMK A01 T01750019  RH  035%=      5-min Rain = 0
KWE3 090236Z 13009KT 18/02 A2965 RMK A01 T01750020  RH  035%=      5-min Rain = 0
KWE3 090237Z 13009KT 17/02 A2965 RMK A01 T01740020  RH  035%=      5-min Rain = 0
KWE3 090238Z 13008KT 17/02 A2965 RMK A01 T01740020  RH  036%=      5-min Rain = 0
KWE3 090239Z 13009KT 17/02 A2965 RMK A01 T01730021  RH  036%=      5-min Rain = 0
KWE3 090240Z 13008KT 17/02 A2965 RMK A01 T01720021  RH  036%=      5-min Rain = 0
KWE3 090241Z 13009KT 17/02 A2965 RMK A01 T01710021  RH  036%=      5-min Rain = 0
KWE3 090242Z 13008KT 17/02 A2965 RMK A01 T01710022  RH  037%=      5-min Rain = 0
KWE3 090243Z 13009KT 17/02 A2965 RMK A01 T01700022  RH  037%=      5-min Rain = 0
KWE3 090244Z 13008KT 17/02 A2965 RMK A01 T01690022  RH  037%=      5-min Rain = 0
KWE3 090245Z 13008KT 17/02 A2966 RMK A01 T01690022  RH  037%=      5-min Rain = 0
KWE3 090246Z 13009KT 17/02 A2966 RMK A01 T01680022  RH  037%=      5-min Rain = 0
KWE3 090247Z 12008KT 17/02 A2966 RMK A01 T01680021  RH  037%=      5-min Rain = 0
KWE3 090248Z 12008KT 17/02 A2966 RMK A01 T01680021  RH  037%=      5-min Rain = 0
KWE3 090249Z 12008KT 17/02 A2966 RMK A01 T01670021  RH  038%=      5-min Rain = 0
KWE3 090250Z 13008KT 17/02 A2966 RMK A01 T01650021  RH  038%=      5-min Rain = 0
KWE3 090251Z 13008KT 17/02 A2966 RMK A01 T01650022  RH  038%=      5-min Rain = 0
KWE3 090252Z 13008G13KT 17/02 A2966 RMK A01 T01650022  RH  038%=      5-min Rain = 0
KWE3 090253Z 13008KT 17/02 A2966 RMK A01 T01660022  RH  038%=      5-min Rain = 0
KWE3 090254Z 13008KT 17/02 A2966 RMK A01 T01650022  RH  038%=      5-min Rain = 0
KWE3 090255Z 13007KT 17/02 A2966 RMK A01 T01650022  RH  038%=      5-min Rain = 0
KWE3 090256Z 12008KT 16/02 A2966 RMK A01 T01640022  RH  038%=      5-min Rain = 0
KWE3 090257Z 12008KT 16/02 A2966 RMK A01 T01630021  RH  038%=      5-min Rain = 0
KWE3 090258Z 12008KT 16/02 A2966 RMK A01 T01620021  RH  039%=      5-min Rain = 0
KWE3 090259Z 12008KT 16/02 A2966 RMK A01 T01610021  RH  039%=      5-min Rain = 0
KWE3 090300Z 12008KT 16/02 A2966 RMK A01 T01600021  RH  039%=      5-min Rain = 0
KWE3 090301Z 12008KT 16/02 A2966 RMK A01 T01590021  RH  039%=      5-min Rain = 0
KWE3 090302Z 12008KT 16/02 A2966 RMK A01 T01580021  RH  040%=      5-min Rain = 0
KWE3 090303Z 12008KT 16/02 A2966 RMK A01 T01580021  RH  040%=      5-min Rain = 0
KWE3 090304Z 12009KT 16/02 A2966 RMK A01 T01580022  RH  040%=      5-min Rain = 0
KWE3 090305Z 12009KT 16/02 A2966 RMK A01 T01590022  RH  040%=      5-min Rain = 0
KWE3 090306Z 13009KT 16/02 A2966 RMK A01 T01590022  RH  040%=      5-min Rain = 0
KWE3 090307Z 13010KT 16/02 A2966 RMK A01 T01600022  RH  039%=      5-min Rain = 0
KWE3 090308Z 13010KT 16/02 A2966 RMK A01 T01620023  RH  039%=      5-min Rain = 0
KWE3 090309Z 12009KT 16/02 A2966 RMK A01 T01630023  RH  039%=      5-min Rain = 0
KWE3 090310Z 12009KT 16/02 A2966 RMK A01 T01630023  RH  039%=      5-min Rain = 0
KWE3 090311Z 12009KT 16/02 A2966 RMK A01 T01640022  RH  039%=      5-min Rain = 0
KWE3 090312Z 12009KT 16/02 A2966 RMK A01 T01640023  RH  039%=      5-min Rain = 0
KWE3 090313Z 12009KT 16/02 A2966 RMK A01 T01640023  RH  039%=      5-min Rain = 0
KWE3 090314Z 12010KT 16/02 A2966 RMK A01 T01640024  RH  039%=      5-min Rain = 0
KWE3 090315Z 12009KT 16/02 A2966 RMK A01 T01640024  RH  039%=      5-min Rain = 0
KWE3 090316Z 12009KT 16/03 A2966 RMK A01 T01630025  RH  039%=      5-min Rain = 0
KWE3 090317Z 12009KT 16/03 A2966 RMK A01 T01630025  RH  040%=      5-min Rain = 0
KWE3 090318Z 12009KT 16/03 A2966 RMK A01 T01630026  RH  040%=      5-min Rain = 0
KWE3 090319Z 12009KT 16/03 A2966 RMK A01 T01630026  RH  040%=      5-min Rain = 0
KWE3 090320Z 12009KT 16/03 A2966 RMK A01 T01620027  RH  040%=      5-min Rain = 0
KWE3 090321Z 12009KT 16/03 A2966 RMK A01 T01620027  RH  040%=      5-min Rain = 0
KWE3 090322Z 12009KT 16/03 A2966 RMK A01 T01620027  RH  040%=      5-min Rain = 0
KWE3 090323Z 12010KT 16/03 A2966 RMK A01 T01610028  RH  041%=      5-min Rain = 0
KWE3 090324Z 12010KT 16/03 A2966 RMK A01 T01600028  RH  041%=      5-min Rain = 0
KWE3 090325Z 12010KT 16/03 A2966 RMK A01 T01600028  RH  041%=      5-min Rain = 0
KWE3 090326Z 12010KT 16/03 A2966 RMK A01 T01600028  RH  041%=      5-min Rain = 0
KWE3 090327Z 13010KT 16/03 A2966 RMK A01 T01600029  RH  041%=      5-min Rain = 0
KWE3 090328Z 13011KT 16/03 A2966 RMK A01 T01610029  RH  041%=      5-min Rain = 0
KWE3 090329Z 13011KT 16/03 A2966 RMK A01 T01620029  RH  041%=      5-min Rain = 0
KWE3 090330Z 13011KT 16/03 A2966 RMK A01 T01630029  RH  041%=      5-min Rain = 0
KWE3 090331Z 13010KT 16/03 A2966 RMK A01 T01640029  RH  040%=      5-min Rain = 0
KWE3 090332Z 13011KT 17/03 A2966 RMK A01 T01660030  RH  040%=      5-min Rain = 0
KWE3 090333Z 13010KT 17/03 A2966 RMK A01 T01660030  RH  040%=      5-min Rain = 0
KWE3 090334Z 13010KT 17/03 A2966 RMK A01 T01660030  RH  040%=      5-min Rain = 0
KWE3 090335Z 13009KT 17/03 A2966 RMK A01 T01660030  RH  040%=      5-min Rain = 0
KWE3 090336Z 13009KT 17/03 A2966 RMK A01 T01660030  RH  040%=      5-min Rain = 0
KWE3 090337Z 13010KT 17/03 A2966 RMK A01 T01660030  RH  040%=      5-min Rain = 0
KWE3 090338Z 13010KT 17/03 A2965 RMK A01 T01650030  RH  040%=      5-min Rain = 0
KWE3 090339Z 13010KT 17/03 A2965 RMK A01 T01650031  RH  041%=      5-min Rain = 0
KWE3 090340Z 13010KT 17/03 A2965 RMK A01 T01650031  RH  041%=      5-min Rain = 0
KWE3 090341Z 13010KT 17/03 A2965 RMK A01 T01650031  RH  041%=      5-min Rain = 0
KWE3 090342Z 13010KT 17/03 A2965 RMK A01 T01660031  RH  041%=      5-min Rain = 0
KWE3 090343Z 13010KT 17/03 A2965 RMK A01 T01660031  RH  041%=      5-min Rain = 0
KWE3 090344Z 13009KT 17/03 A2965 RMK A01 T01660032  RH  041%=      5-min Rain = 0
KWE3 090345Z 13010KT 17/03 A2965 RMK A01 T01660032  RH  041%=      5-min Rain = 0
KWE3 090346Z 13009KT 17/03 A2965 RMK A01 T01660032  RH  041%=      5-min Rain = 0
KWE3 090347Z 13010KT 17/03 A2965 RMK A01 T01660032  RH  041%=      5-min Rain = 0
KWE3 090348Z 14009KT 17/03 A2965 RMK A01 T01660032  RH  041%=      5-min Rain = 0
KWE3 090349Z 14010KT 17/03 A2965 RMK A01 T01660032  RH  041%=      5-min Rain = 0
KWE3 090350Z 14010KT 17/03 A2965 RMK A01 T01660032  RH  041%=      5-min Rain = 0
KWE3 090351Z 14010KT 17/03 A2965 RMK A01 T01660032  RH  041%=      5-min Rain = 0
KWE3 090352Z 14011KT 17/03 A2965 RMK A01 T01650033  RH  041%=      5-min Rain = 0
KWE3 090353Z 14011KT 17/03 A2965 RMK A01 T01650033  RH  041%=      5-min Rain = 0
KWE3 090354Z 13009KT 17/03 A2965 RMK A01 T01650033  RH  041%=      5-min Rain = 0
KWE3 090355Z 13010KT 17/03 A2965 RMK A01 T01650033  RH  041%=      5-min Rain = 0
KWE3 090356Z 13010KT 17/03 A2965 RMK A01 T01650033  RH  041%=      5-min Rain = 0
KWE3 090357Z 13009KT 17/03 A2965 RMK A01 T01660033  RH  041%=      5-min Rain = 0
KWE3 090358Z 13010KT 17/03 A2965 RMK A01 T01670032  RH  041%=      5-min Rain = 0
KWE3 090359Z 13010KT 17/03 A2965 RMK A01 T01680032  RH  040%=      5-min Rain = 0
KWE3 090400Z 13010KT 17/03 A2965 RMK A01 T01690032  RH  040%=      5-min Rain = 0
KWE3 090401Z 13010KT 17/03 A2965 RMK A01 T01690032  RH  040%=      5-min Rain = 0
KWE3 090402Z 14009KT 17/03 A2965 RMK A01 T01690032  RH  040%=      5-min Rain = 0
KWE3 090403Z 13011KT 17/03 A2965 RMK A01 T01680032  RH  040%=      5-min Rain = 0
KWE3 090404Z 13010KT 17/03 A2965 RMK A01 T01690032  RH  040%=      5-min Rain = 0
KWE3 090405Z 14010KT 17/03 A2965 RMK A01 T01700032  RH  040%=      5-min Rain = 0
KWE3 090406Z 14011KT 17/03 A2965 RMK A01 T01700032  RH  040%=      5-min Rain = 0
KWE3 090407Z 14011KT 17/03 A2965 RMK A01 T01700032  RH  040%=      5-min Rain = 0
KWE3 090408Z 14011KT 17/03 A2965 RMK A01 T01690032  RH  040%=      5-min Rain = 0
KWE3 090409Z 14011KT 17/03 A2965 RMK A01 T01690032  RH  040%=      5-min Rain = 0
KWE3 090410Z 14010KT 17/03 A2965 RMK A01 T01700032  RH  040%=      5-min Rain = 0
KWE3 090411Z 13010KT 17/03 A2965 RMK A01 T01700032  RH  040%=      5-min Rain = 0
KWE3 090412Z 13010KT 17/03 A2965 RMK A01 T01700032  RH  040%=      5-min Rain = 0
KWE3 090413Z 13010KT 17/03 A2965 RMK A01 T01690032  RH  040%=      5-min Rain = 0
KWE3 090414Z 14010KT 17/03 A2965 RMK A01 T01690032  RH  040%=      5-min Rain = 0
KWE3 090415Z 13010KT 17/03 A2965 RMK A01 T01690032  RH  040%=      5-min Rain = 0
KWE3 090416Z 13010KT 17/03 A2965 RMK A01 T01690032  RH  040%=      5-min Rain = 0
KWE3 090417Z 13009KT 17/03 A2965 RMK A01 T01690033  RH  040%=      5-min Rain = 0
KWE3 090418Z 14010KT 17/03 A2965 RMK A01 T01680032  RH  040%=      5-min Rain = 0
KWE3 090419Z 14010KT 17/03 A2965 RMK A01 T01670033  RH  041%=      5-min Rain = 0
KWE3 090420Z 14010KT 17/03 A2965 RMK A01 T01660032  RH  041%=      5-min Rain = 0
KWE3 090421Z 13011KT 17/03 A2965 RMK A01 T01660032  RH  041%=      5-min Rain = 0
KWE3 090422Z 13010KT 17/03 A2965 RMK A01 T01660033  RH  041%=      5-min Rain = 0
KWE3 090423Z 13009KT 17/03 A2965 RMK A01 T01660033  RH  041%=      5-min Rain = 0
KWE3 090424Z 13010KT 17/03 A2964 RMK A01 T01660033  RH  041%=      5-min Rain = 0
KWE3 090425Z 13009KT 17/03 A2964 RMK A01 T01660033  RH  041%=      5-min Rain = 0
KWE3 090426Z 13010KT 17/03 A2965 RMK A01 T01660033  RH  041%=      5-min Rain = 0
KWE3 090427Z 13009KT 17/03 A2965 RMK A01 T01660033  RH  041%=      5-min Rain = 0
KWE3 090428Z 13009KT 17/03 A2965 RMK A01 T01660033  RH  041%=      5-min Rain = 0
KWE3 090429Z 13009KT 17/03 A2965 RMK A01 T01660033  RH  041%=      5-min Rain = 0
KWE3 090430Z 13010KT 17/03 A2965 RMK A01 T01650033  RH  041%=      5-min Rain = 0
KWE3 090431Z 13010KT 16/03 A2965 RMK A01 T01640033  RH  041%=      5-min Rain = 0
KWE3 090432Z 13010KT 16/03 A2964 RMK A01 T01640033  RH  041%=      5-min Rain = 0
KWE3 090433Z 13009KT 16/03 A2964 RMK A01 T01640033  RH  041%=      5-min Rain = 0
KWE3 090434Z 13009KT 16/03 A2964 RMK A01 T01640033  RH  042%=      5-min Rain = 0
KWE3 090435Z 13009KT 16/03 A2964 RMK A01 T01630033  RH  042%=      5-min Rain = 0
KWE3 090436Z 13009KT 16/03 A2964 RMK A01 T01630033  RH  042%=      5-min Rain = 0
KWE3 090437Z 14008KT 16/03 A2964 RMK A01 T01620033  RH  042%=      5-min Rain = 0
KWE3 090438Z 14008KT 16/03 A2964 RMK A01 T01620033  RH  042%=      5-min Rain = 0
KWE3 090439Z 13009KT 16/03 A2964 RMK A01 T01610033  RH  042%=      5-min Rain = 0
KWE3 090440Z 13009KT 16/03 A2964 RMK A01 T01590033  RH  043%=      5-min Rain = 0
KWE3 090441Z 13009KT 16/03 A2964 RMK A01 T01590033  RH  043%=      5-min Rain = 0
KWE3 090442Z 12009KT 16/03 A2965 RMK A01 T01590033  RH  043%=      5-min Rain = 0
KWE3 090443Z 12009KT 16/03 A2965 RMK A01 T01590033  RH  043%=      5-min Rain = 0
KWE3 090444Z 11009KT 16/03 A2964 RMK A01 T01590033  RH  043%=      5-min Rain = 0
KWE3 090445Z 11009KT 16/03 A2964 RMK A01 T01560033  RH  044%=      5-min Rain = 0
KWE3 090446Z 11009KT 15/03 A2964 RMK A01 T01540033  RH  044%=      5-min Rain = 0
KWE3 090447Z 11009KT 15/03 A2964 RMK A01 T01520033  RH  045%=      5-min Rain = 0
KWE3 090448Z 12008KT 15/03 A2964 RMK A01 T01510033  RH  045%=      5-min Rain = 0
KWE3 090449Z 12008KT 15/03 A2964 RMK A01 T01500033  RH  045%=      5-min Rain = 0
KWE3 090450Z 12009KT 15/03 A2964 RMK A01 T01500034  RH  046%=      5-min Rain = 0
KWE3 090451Z 12009KT 15/03 A2964 RMK A01 T01500034  RH  046%=      5-min Rain = 0
KWE3 090452Z 11009KT 15/03 A2964 RMK A01 T01500034  RH  046%=      5-min Rain = 0
KWE3 090453Z 11010KT 15/03 A2964 RMK A01 T01510034  RH  045%=      5-min Rain = 0
KWE3 090454Z 12010KT 15/03 A2964 RMK A01 T01500034  RH  045%=      5-min Rain = 0
KWE3 090455Z 12009KT 15/03 A2964 RMK A01 T01500034  RH  046%=      5-min Rain = 0
KWE3 090456Z 12009KT 15/03 A2964 RMK A01 T01500034  RH  046%=      5-min Rain = 0
KWE3 090457Z 12010KT 15/03 A2964 RMK A01 T01500034  RH  046%=      5-min Rain = 0
KWE3 090458Z 12010KT 15/03 A2964 RMK A01 T01510034  RH  045%=      5-min Rain = 0
KWE3 090459Z 12009KT 15/03 A2964 RMK A01 T01520034  RH  045%=      5-min Rain = 0

Page generated in 0.1526 seconds.